CW3318 Weather Reports


time (UTC)temp
C
wind
direction
speed
KPH
gust
KPH
rain 1hr
cm
rain 24hr
cm
rain mn
cm
humidity
%
barometer
mb
20260506143521 10 191 3.2 4.8 0.00 0.00 0.00 77 1012.6
20260506143428 10 191 1.6 4.8 0.00 0.00 0.00 77 1012.6
20260506143324 10 191 1.6 8.0 0.00 0.00 0.00 77 1012.5
20260506143231 10 191 1.6 8.0 0.00 0.00 0.00 77 1012.5
20260506143129 10 191 3.2 8.0 0.00 0.00 0.00 77 1012.4
20260506143040 10 191 3.2 8.0 0.00 0.00 0.00 77 1012.5
20260506142935 10 191 1.6 8.0 0.00 0.00 0.00 77 1012.4
20260506142839 10 191 1.6 8.0 0.00 0.00 0.00 77 1012.4
20260506142736 10 191 1.6 8.0 0.00 0.00 0.00 77 1012.4
20260506142620 10 191 3.2 8.0 0.00 0.00 0.00 77 1012.4
20260506142537 10 191 3.2 8.0 0.00 0.00 0.00 77 1012.4
20260506142423 10 200 3.2 6.4 0.00 0.00 0.00 77 1012.4
20260506142321 10 200 3.2 6.4 0.00 0.00 0.00 77 1012.4
20260506142232 10 196 1.6 4.8 0.00 0.00 0.00 76 1012.4
20260506142128 10 196 1.6 4.8 0.00 0.00 0.00 76 1012.4
20260506142025 10 196 1.6 4.8 0.00 0.00 0.00 76 1012.4
20260506141913 10 196 3.2 4.8 0.00 0.00 0.00 76 1012.4
20260506141830 10 196 1.6 4.8 0.00 0.00 0.00 76 1012.4
20260506141736 10 196 1.6 4.8 0.00 0.00 0.00 76 1012.4
20260506141637 10 196 0.0 3.2 0.00 0.00 0.00 76 1012.4
20260506141523 10 196 0.0 3.2 0.00 0.00 0.00 76 1012.4
20260506141418 10 196 0.0 3.2 0.00 0.00 0.00 76 1012.4
20260506141315 10 196 0.0 3.2 0.00 0.00 0.00 76 1012.4
20260506141222 10 196 0.0 3.2 0.00 0.00 0.00 76 1012.4
20260506141118 10 196 1.6 3.2 0.00 0.00 0.00 76 1012.4
20260506141024 10 196 0.0 3.2 0.00 0.00 0.00 76 1012.4
20260506140926 10 196 0.0 3.2 0.00 0.00 0.00 76 1012.4
20260506140821 10 196 0.0 3.2 0.00 0.00 0.00 76 1012.4
20260506140728 10 196 0.0 4.8 0.00 0.00 0.00 76 1012.4
20260506140624 10 196 1.6 4.8 0.00 0.00 0.00 76 1012.4
20260506140528 10 196 0.0 4.8 0.00 0.00 0.00 76 1012.4
20260506140426 10 196 0.0 6.4 0.00 0.00 0.00 76 1012.4
20260506140336 10 196 1.6 6.4 0.00 0.00 0.00 76 1012.4
20260506140230 10 196 1.6 6.4 0.00 0.00 0.00 76 1012.3
20260506140125 10 196 1.6 6.4 0.00 0.00 0.00 76 1012.3
20260506140032 10 196 1.6 6.4 0.00 0.00 0.00 76 1012.3
20260506135929 10 196 1.6 8.0 0.00 0.00 0.00 76 1012.3
20260506135836 10 196 3.2 12.9 0.00 0.00 0.00 76 1012.2
20260506135715 10 196 3.2 12.9 0.00 0.00 0.00 76 1012.1
20260506135614 10 196 1.6 12.9 0.00 0.00 0.00 76 1012.1
20260506135521 10 196 1.6 12.9 0.00 0.00 0.00 76 1012.1
20260506135418 10 196 3.2 12.9 0.00 0.00 0.00 76 1012.1
20260506135321 10 194 3.2 14.5 0.00 0.00 0.00 76 1012.1
20260506135236 10 195 4.8 14.5 0.00 0.00 0.00 76 1012.0
20260506135120 10 182 6.4 14.5 0.00 0.00 0.00 76 1012.0
20260506135024 10 183 8.0 14.5 0.00 0.00 0.00 76 1011.9
20260506134925 10 157 6.4 14.5 0.00 0.00 0.00 76 1011.9
20260506134820 10 178 6.4 14.5 0.00 0.00 0.00 76 1011.9
20260506134728 10 180 6.4 14.5 0.00 0.00 0.00 76 1011.9
20260506134624 10 173 6.4 14.5 0.00 0.00 0.00 76 1011.9
20260506134529 10 156 8.0 17.7 0.00 0.00 0.00 76 1011.9
20260506134426 10 183 9.7 17.7 0.00 0.00 0.00 76 1011.9
20260506134331 10 170 9.7 17.7 0.00 0.00 0.00 76 1011.9
20260506134231 10 151 9.7 17.7 0.00 0.00 0.00 76 1011.9
20260506134131 10 150 11.3 17.7 0.00 0.00 0.00 76 1011.8
20260506134035 10 158 11.3 17.7 0.00 0.00 0.00 76 1011.9
20260506133932 10 156 11.3 17.7 0.00 0.00 0.00 76 1011.8
20260506133838 10 173 11.3 17.7 0.00 0.00 0.00 76 1011.9
20260506133716 10 152 9.7 17.7 0.00 0.00 0.00 76 1011.8
20260506133616 10 160 9.7 14.5 0.00 0.00 0.00 76 1011.8
20260506133523 10 161 9.7 14.5 0.00 0.00 0.00 76 1011.8
20260506133440 10 169 8.0 14.5 0.00 0.00 0.00 76 1011.9
20260506133325 10 163 8.0 14.5 0.00 0.00 0.00 76 1011.9
20260506133221 10 158 9.7 14.5 0.00 0.00 0.00 76 1011.9
20260506133130 10 159 9.7 14.5 0.00 0.00 0.00 76 1011.9
20260506133044 10 158 9.7 14.5 0.00 0.00 0.00 76 1011.9
20260506132928 10 162 8.0 14.5 0.00 0.00 0.00 76 1011.9
20260506132837 10 173 8.0 14.5 0.00 0.00 0.00 76 1011.9
20260506132732 10 154 9.7 14.5 0.00 0.00 0.00 76 1011.8
20260506132638 10 127 9.7 14.5 0.00 0.00 0.00 76 1011.8
20260506132513 10 175 8.0 14.5 0.00 0.00 0.00 76 1011.8
20260506132430 10 159 8.0 14.5 0.00 0.00 0.00 76 1011.8
20260506132336 10 162 8.0 14.5 0.00 0.00 0.00 76 1011.8
20260506132218 10 155 6.4 14.5 0.00 0.00 0.00 76 1011.8
20260506132113 10 143 8.0 14.5 0.00 0.00 0.00 76 1011.7
20260506132019 10 125 8.0 12.9 0.00 0.00 0.00 76 1011.7
20260506131915 10 150 6.4 12.9 0.00 0.00 0.00 76 1011.8
20260506131822 10 134 6.4 17.7 0.00 0.00 0.00 76 1011.7
20260506131722 10 148 8.0 17.7 0.00 0.00 0.00 76 1011.8
20260506131618 10 159 8.0 17.7 0.00 0.00 0.00 76 1011.8
20260506131548 10 149 6.4 17.7 0.00 0.00 0.00 76 1011.8
20260506131432 10 150 6.4 17.7 0.00 0.00 0.00 76 1011.7
20260506131330 10 163 4.8 17.7 0.00 0.00 0.00 76 1011.8
20260506131255 10 170 4.8 17.7 0.00 0.00 0.00 76 1011.7
20260506131133 10 170 8.0 17.7 0.00 0.00 0.00 76 1011.7
20260506131039 10 151 8.0 17.7 0.00 0.00 0.00 76 1011.7
20260506130937 10 160 8.0 16.1 0.00 0.00 0.00 76 1011.7
20260506130816 10 166 8.0 16.1 0.00 0.00 0.00 76 1011.7
20260506130725 10 157 8.0 16.1 0.00 0.00 0.00 76 1011.6
20260506130621 10 150 6.4 16.1 0.00 0.00 0.00 76 1011.6
20260506130547 10 146 8.0 16.1 0.00 0.00 0.00 76 1011.6
20260506130422 10 149 8.0 16.1 0.00 0.00 0.00 76 1011.6
20260506130328 10 144 8.0 16.1 0.00 0.00 0.00 76 1011.6
20260506130225 10 152 4.8 16.1 0.00 0.00 0.00 76 1011.6
20260506130137 10 163 6.4 16.1 0.00 0.00 0.00 76 1011.6
20260506130049 10 150 8.0 16.1 0.00 0.00 0.00 77 1011.6
20260506125932 10 145 8.0 16.1 0.00 0.00 0.00 76 1011.5
20260506125828 10 147 8.0 16.1 0.00 0.00 0.00 76 1011.5
20260506125734 10 145 6.4 16.1 0.00 0.00 0.00 76 1011.5
20260506125654 10 155 4.8 16.1 0.00 0.00 0.00 76 1011.4
20260506125535 10 157 6.4 16.1 0.00 0.00 0.00 76 1011.5
20260506125417 10 172 9.7 17.7 0.00 0.00 0.00 76 1011.4
20260506125316 10 136 9.7 17.7 0.00 0.00 0.00 76 1011.4
20260506125223 10 144 9.7 17.7 0.00 0.00 0.00 76 1011.4
20260506125119 10 160 9.7 17.7 0.00 0.00 0.00 77 1011.4
20260506125024 10 149 9.7 17.7 0.00 0.00 0.00 77 1011.4
20260506124920 10 151 9.7 17.7 0.00 0.00 0.00 77 1011.4
20260506124817 10 144 9.7 17.7 0.00 0.00 0.00 77 1011.4
20260506124730 10 156 9.7 17.7 0.00 0.00 0.00 77 1011.4
20260506124625 10 140 9.7 17.7 0.00 0.00 0.00 77 1011.4
20260506124532 10 152 11.3 17.7 0.00 0.00 0.00 77 1011.4
20260506124428 10 150 9.7 17.7 0.00 0.00 0.00 77 1011.4
20260506124333 10 162 8.0 14.5 0.00 0.00 0.00 77 1011.4
20260506124240 10 150 8.0 14.5 0.00 0.00 0.00 77 1011.4
20260506124115 10 152 9.7 14.5 0.00 0.00 0.00 77 1011.4
20260506124024 10 150 9.7 14.5 0.00 0.00 0.00 77 1011.4
20260506123940 10 160 8.0 14.5 0.00 0.00 0.00 77 1011.4
20260506123825 10 158 8.0 14.5 0.00 0.00 0.00 77 1011.4
20260506123722 10 150 8.0 14.5 0.00 0.00 0.00 77 1011.4
20260506123651 10 170 8.0 12.9 0.00 0.00 0.00 77 1011.4
20260506123523 10 165 8.0 12.9 0.00 0.00 0.00 77 1011.4
20260506123450 10 153 8.0 12.9 0.00 0.00 0.00 77 1011.4
20260506123327 10 141 6.4 12.9 0.00 0.00 0.00 76 1011.3
20260506123238 10 152 6.4 12.9 0.00 0.00 0.00 76 1011.4
20260506123140 10 152 6.4 12.9 0.00 0.00 0.00 76 1011.3
20260506123015 10 154 6.4 14.5 0.00 0.00 0.00 76 1011.4
20260506122914 10 154 6.4 14.5 0.00 0.00 0.00 76 1011.3
20260506122819 10 154 6.4 14.5 0.00 0.00 0.00 76 1011.4
20260506122718 10 154 6.4 14.5 0.00 0.00 0.00 76 1011.3
20260506122622 10 156 8.0 14.5 0.00 0.00 0.00 76 1011.4
20260506122538 10 155 6.4 14.5 0.00 0.00 0.00 76 1011.3
20260506122426 10 152 6.4 14.5 0.00 0.00 0.00 76 1011.3
20260506122324 10 156 8.0 14.5 0.00 0.00 0.00 76 1011.3
20260506122231 10 158 8.0 14.5 0.00 0.00 0.00 76 1011.3
20260506122150 10 156 6.4 12.9 0.00 0.00 0.00 76 1011.3
20260506122033 10 157 8.0 12.9 0.00 0.00 0.00 76 1011.3
20260506122000 10 163 8.0 12.9 0.00 0.00 0.00 76 1011.3
20260506121817 10 144 6.4 12.9 0.00 0.00 0.00 76 1011.3
20260506121720 10 155 6.4 12.9 0.00 0.00 0.00 76 1011.3
20260506121626 10 142 6.4 12.9 0.00 0.00 0.00 76 1011.3
20260506121523 10 144 6.4 12.9 0.00 0.00 0.00 76 1011.3
20260506121420 10 164 6.4 12.9 0.00 0.00 0.00 76 1011.3
20260506121325 11 150 8.0 12.9 0.00 0.00 0.00 76 1011.3
20260506121221 11 163 6.4 12.9 0.00 0.00 0.00 76 1011.3
20260506121134 11 140 8.0 12.9 0.00 0.00 0.00 76 1011.3
20260506121030 11 139 8.0 12.9 0.00 0.00 0.00 76 1011.3
20260506120926 11 144 8.0 12.9 0.00 0.00 0.00 76 1011.3
20260506120832 11 171 6.4 12.9 0.00 0.00 0.00 76 1011.3
20260506120729 11 150 6.4 12.9 0.00 0.00 0.00 76 1011.2
20260506120637 11 153 6.4 12.9 0.00 0.00 0.00 76 1011.2
20260506120516 11 156 6.4 12.9 0.00 0.00 0.00 75 1011.2
20260506120414 11 158 6.4 12.9 0.00 0.00 0.00 75 1011.2
20260506120319 11 155 6.4 12.9 0.00 0.00 0.00 75 1011.2
20260506120217 11 154 6.4 12.9 0.00 0.00 0.00 75 1011.2
20260506120122 11 154 6.4 12.9 0.00 0.00 0.00 75 1011.2
20260506120019 11 155 6.4 12.9 0.00 0.00 0.00 75 1011.2
20260506115914 11 158 8.0 12.9 0.00 0.00 0.00 75 1011.1
20260506115825 11 144 8.0 12.9 0.00 0.00 0.00 75 1011.1
20260506115721 11 164 8.0 12.9 0.00 0.00 0.00 74 1011.1
20260506115630 11 151 6.4 12.9 0.00 0.00 0.00 74 1011.1
20260506115524 11 173 4.8 11.3 0.00 0.00 0.00 74 1011.1
20260506115430 11 143 4.8 11.3 0.00 0.00 0.00 74 1011.1
20260506115348 11 142 6.4 11.3 0.00 0.00 0.00 73 1011.2
20260506115230 11 143 6.4 11.3 0.00 0.00 0.00 73 1011.1
20260506115132 11 144 6.4 11.3 0.00 0.00 0.00 73 1011.1
20260506115037 11 146 4.8 11.3 0.00 0.00 0.00 72 1011.1
20260506114914 11 162 4.8 11.3 0.00 0.00 0.00 72 1011.0
20260506114831 11 162 4.8 11.3 0.00 0.00 0.00 72 1011.0
20260506114737 11 164 6.4 11.3 0.00 0.00 0.00 72 1011.0
20260506114635 11 166 6.4 9.7 0.00 0.00 0.00 72 1011.0
20260506114537 11 175 6.4 9.7 0.00 0.00 0.00 72 1011.0
20260506114418 11 153 4.8 11.3 0.00 0.00 0.00 72 1011.0
20260506114316 11 153 4.8 11.3 0.00 0.00 0.00 73 1011.0
20260506114224 11 153 4.8 11.3 0.00 0.00 0.00 73 1010.9
20260506114119 11 154 6.4 11.3 0.00 0.00 0.00 73 1010.9
20260506114014 11 146 6.4 11.3 0.00 0.00 0.00 73 1010.9
20260506113922 11 146 6.4 11.3 0.00 0.00 0.00 73 1010.9
20260506113823 11 147 6.4 11.3 0.00 0.00 0.00 73 1010.9
20260506113731 11 148 6.4 11.3 0.00 0.00 0.00 73 1010.9
20260506113626 11 148 6.4 11.3 0.00 0.00 0.00 73 1010.9
20260506113531 11 148 6.4 11.3 0.00 0.00 0.00 73 1010.9
20260506113430 11 150 6.4 11.3 0.00 0.00 0.00 73 1010.9
20260506113336 11 150 6.4 11.3 0.00 0.00 0.00 73 1010.9
20260506113215 11 151 6.4 11.3 0.00 0.00 0.00 73 1010.9
20260506113124 11 152 6.4 11.3 0.00 0.00 0.00 73 1010.9
20260506113039 11 153 8.0 11.3 0.00 0.00 0.00 73 1010.8
20260506112925 11 155 6.4 11.3 0.00 0.00 0.00 73 1010.9
20260506112822 11 156 6.4 11.3 0.00 0.00 0.00 74 1010.8
20260506112731 11 159 6.4 11.3 0.00 0.00 0.00 74 1010.8
20260506112625 11 160 6.4 11.3 0.00 0.00 0.00 74 1010.9
20260506112523 11 160 6.4 11.3 0.00 0.00 0.00 74 1010.8
20260506112434 11 160 6.4 11.3 0.00 0.00 0.00 74 1010.8
20260506112330 11 160 6.4 11.3 0.00 0.00 0.00 74 1010.8
20260506112239 11 160 6.4 11.3 0.00 0.00 0.00 74 1010.8
20260506112114 11 161 6.4 11.3 0.00 0.00 0.00 75 1010.8
20260506112030 11 162 6.4 11.3 0.00 0.00 0.00 75 1010.8
20260506111937 11 162 6.4 11.3 0.00 0.00 0.00 75 1010.8
20260506111819 11 162 6.4 11.3 0.00 0.00 0.00 75 1010.8
20260506111719 11 163 6.4 11.3 0.00 0.00 0.00 75 1010.8
20260506111623 11 163 6.4 11.3 0.00 0.00 0.00 75 1010.8
20260506111519 11 163 6.4 11.3 0.00 0.00 0.00 75 1010.8
20260506111427 11 163 6.4 11.3 0.00 0.00 0.00 75 1010.8
20260506111323 11 163 4.8 12.9 0.00 0.00 0.00 75 1010.8
20260506111224 11 165 4.8 12.9 0.00 0.00 0.00 75 1010.8
20260506111132 11 164 4.8 12.9 0.00 0.00 0.00 75 1010.8
20260506111028 11 164 6.4 12.9 0.00 0.00 0.00 75 1010.7
20260506110933 11 164 6.4 12.9 0.00 0.00 0.00 75 1010.7
20260506110830 11 166 4.8 12.9 0.00 0.00 0.00 75 1010.7
20260506110755 11 163 4.8 14.5 0.00 0.00 0.00 74 1010.7
20260506110633 11 161 6.4 14.5 0.00 0.00 0.00 74 1010.7
20260506110520 11 162 6.4 14.5 0.00 0.00 0.00 74 1010.7
20260506110418 11 164 4.8 14.5 0.00 0.00 0.00 74 1010.7
20260506110345 11 164 4.8 14.5 0.00 0.00 0.00 74 1010.7
20260506110230 11 165 4.8 14.5 0.00 0.00 0.00 73 1010.7
20260506110125 11 165 6.4 14.5 0.00 0.00 0.00 73 1010.7
20260506110023 11 166 8.0 14.5 0.00 0.00 0.00 73 1010.7
20260506105928 11 161 8.0 14.5 0.00 0.00 0.00 73 1010.7
20260506105824 11 160 9.7 14.5 0.00 0.00 0.00 73 1010.7
20260506105734 11 162 9.7 14.5 0.00 0.00 0.00 73 1010.7
20260506105631 11 162 8.0 14.5 0.00 0.00 0.00 73 1010.7
20260506105517 11 167 6.4 14.5 0.00 0.00 0.00 73 1010.7
20260506105412 11 149 6.4 14.5 0.00 0.00 0.00 73 1010.7
20260506105339 11 150 8.0 14.5 0.00 0.00 0.00 73 1010.7
20260506105218 11 150 8.0 14.5 0.00 0.00 0.00 73 1010.6
20260506105116 11 148 8.0 14.5 0.00 0.00 0.00 73 1010.7
20260506105023 11 167 8.0 14.5 0.00 0.00 0.00 73 1010.7
20260506104921 11 146 6.4 14.5 0.00 0.00 0.00 73 1010.6
20260506104847 11 169 6.4 14.5 0.00 0.00 0.00 72 1010.6
20260506104721 11 142 8.0 14.5 0.00 0.00 0.00 72 1010.6
20260506104628 11 142 8.0 14.5 0.00 0.00 0.00 72 1010.6
20260506104522 11 148 8.0 14.5 0.00 0.00 0.00 71 1010.6
20260506104448 11 142 8.0 14.5 0.00 0.00 0.00 71 1010.6
20260506104338 11 136 9.7 14.5 0.00 0.00 0.00 70 1010.5
20260506104235 11 138 8.0 12.9 0.00 0.00 0.00 70 1010.6
20260506104137 12 136 9.7 12.9 0.00 0.00 0.00 70 1010.6
20260506104014 12 141 9.7 12.9 0.00 0.00 0.00 69 1010.5
20260506103920 12 150 8.0 12.9 0.00 0.00 0.00 69 1010.5
20260506103816 12 140 8.0 12.9 0.00 0.00 0.00 69 1010.6
20260506103715 12 139 8.0 12.9 0.00 0.00 0.00 69 1010.5
20260506103624 12 136 8.0 12.9 0.00 0.00 0.00 69 1010.5
20260506103549 12 140 9.7 12.9 0.00 0.00 0.00 70 1010.5
20260506103424 12 142 8.0 12.9 0.00 0.00 0.00 70 1010.5
20260506103322 12 146 8.0 12.9 0.00 0.00 0.00 70 1010.5
20260506103230 12 149 8.0 12.9 0.00 0.00 0.00 71 1010.5
20260506103126 12 148 8.0 12.9 0.00 0.00 0.00 71 1010.5
20260506103032 12 158 6.4 11.3 0.00 0.00 0.00 71 1010.5
20260506102947 12 159 6.4 11.3 0.00 0.00 0.00 71 1010.4
20260506102833 12 160 6.4 11.3 0.00 0.00 0.00 71 1010.5
20260506102802 12 161 4.8 9.7 0.00 0.00 0.00 72 1010.4
20260506102615 12 162 6.4 9.7 0.00 0.00 0.00 72 1010.4
20260506102512 12 162 4.8 9.7 0.00 0.00 0.00 72 1010.4
20260506102437 12 162 4.8 9.7 0.00 0.00 0.00 72 1010.4
20260506102315 12 163 4.8 9.7 0.00 0.00 0.00 71 1010.4
20260506102220 12 163 4.8 9.7 0.00 0.00 0.00 71 1010.4
20260506102119 12 163 4.8 9.7 0.00 0.00 0.00 71 1010.4
20260506102016 12 163 4.8 9.7 0.00 0.00 0.00 71 1010.4
20260506101942 12 163 4.8 9.7 0.00 0.00 0.00 71 1010.4
20260506101827 12 163 6.4 9.7 0.00 0.00 0.00 71 1010.4
20260506101725 12 163 4.8 11.3 0.00 0.00 0.00 71 1010.4
20260506101621 12 163 4.8 11.3 0.00 0.00 0.00 72 1010.4
20260506101525 12 163 4.8 11.3 0.00 0.00 0.00 72 1010.4
20260506101434 12 163 4.8 11.3 0.00 0.00 0.00 72 1010.4
20260506101312 13 163 4.8 11.3 0.00 0.00 0.00 72 1010.4
20260506101240 13 163 4.8 11.3 0.00 0.00 0.00 72 1010.4
20260506101114 13 163 4.8 11.3 0.00 0.00 0.00 72 1010.4
20260506101031 13 163 6.4 11.3 0.00 0.00 0.00 72 1010.4
20260506100937 13 163 6.4 11.3 0.00 0.00 0.00 72 1010.4
20260506100818 13 163 4.8 11.3 0.00 0.00 0.00 72 1010.4
20260506100717 13 163 4.8 11.3 0.00 0.00 0.00 72 1010.4
20260506100620 13 164 6.4 11.3 0.00 0.00 0.00 72 1010.4
20260506100518 13 164 6.4 9.7 0.00 0.00 0.00 72 1010.4
20260506100415 13 164 4.8 9.7 0.00 0.00 0.00 72 1010.4
20260506100320 13 165 6.4 9.7 0.00 0.00 0.00 72 1010.4
20260506100215 13 164 6.4 9.7 0.00 0.00 0.00 72 1010.4
20260506100124 13 165 4.8 9.7 0.00 0.00 0.00 72 1010.3
20260506100021 13 165 4.8 9.7 0.00 0.00 0.00 72 1010.4
20260506095925 13 165 4.8 9.7 0.00 0.00 0.00 72 1010.3
20260506095822 13 165 4.8 11.3 0.00 0.00 0.00 72 1010.4
20260506095749 13 165 4.8 11.3 0.00 0.00 0.00 72 1010.4
20260506095622 13 165 4.8 11.3 0.00 0.00 0.00 71 1010.3
20260506095517 13 165 4.8 11.3 0.00 0.00 0.00 71 1010.3
20260506095425 13 165 6.4 11.3 0.00 0.00 0.00 71 1010.3
20260506095332 13 165 6.4 11.3 0.00 0.00 0.00 71 1010.3
20260506095228 13 166 6.4 11.3 0.00 0.00 0.00 71 1010.3
20260506095137 13 166 6.4 11.3 0.00 0.00 0.00 71 1010.4
20260506095012 13 166 6.4 11.3 0.00 0.00 0.00 71 1010.3
20260506094930 13 194 4.8 8.0 0.00 0.00 0.00 71 1010.3
20260506094835 13 194 4.8 8.0 0.00 0.00 0.00 70 1010.3
20260506094719 13 200 4.8 8.0 0.00 0.00 0.00 70 1010.3
20260506094614 13 200 4.8 8.0 0.00 0.00 0.00 70 1010.4
20260506094541 14 200 3.2 6.4 0.00 0.00 0.00 70 1010.3
20260506094446 14 201 3.2 6.4 0.00 0.00 0.00 70 1010.3
20260506094322 14 201 3.2 6.4 0.00 0.00 0.00 70 1010.3
20260506094229 14 201 3.2 6.4 0.00 0.00 0.00 70 1010.3
20260506094127 14 201 1.6 6.4 0.00 0.00 0.00 70 1010.3
20260506094037 14 201 1.6 6.4 0.00 0.00 0.00 70 1010.3
20260506093912 14 201 1.6 6.4 0.00 0.00 0.00 70 1010.4
20260506093829 14 201 1.6 6.4 0.00 0.00 0.00 70 1010.4
20260506093734 14 201 1.6 6.4 0.00 0.00 0.00 70 1010.3
20260506093643 14 201 1.6 6.4 0.00 0.00 0.00 70 1010.3
20260506093517 14 201 1.6 6.4 0.00 0.00 0.00 70 1010.3
20260506093418 14 201 1.6 6.4 0.00 0.00 0.00 70 1010.3
20260506093323 14 201 1.6 6.4 0.00 0.00 0.00 70 1010.3
20260506093221 14 201 1.6 6.4 0.00 0.00 0.00 70 1010.3
20260506093125 14 201 1.6 6.4 0.00 0.00 0.00 70 1010.3
20260506093042 14 201 0.0 6.4 0.00 0.00 0.00 70 1010.4
20260506092927 14 201 1.6 6.4 0.00 0.00 0.00 70 1010.4
20260506092823 14 201 3.2 6.4 0.00 0.00 0.00 70 1010.3
20260506092729 14 201 3.2 6.4 0.00 0.00 0.00 70 1010.3
20260506092632 14 201 3.2 6.4 0.00 0.00 0.00 70 1010.3
20260506092535 14 201 3.2 6.4 0.00 0.00 0.00 70 1010.3
20260506092432 14 201 3.2 6.4 0.00 0.00 0.00 70 1010.3
20260506092338 14 201 4.8 6.4 0.00 0.00 0.00 70 1010.3
20260506092215 15 201 3.2 8.0 0.00 0.00 0.00 70 1010.2
20260506092118 15 201 3.2 8.0 0.00 0.00 0.00 70 1010.2
20260506092013 15 201 4.8 8.0 0.00 0.00 0.00 70 1010.2
20260506091922 15 201 3.2 8.0 0.00 0.00 0.00 70 1010.2
20260506091820 15 201 4.8 8.0 0.00 0.00 0.00 70 1010.2
20260506091718 15 201 4.8 8.0 0.00 0.00 0.00 70 1010.3
20260506091621 15 201 4.8 8.0 0.00 0.00 0.00 70 1010.3
20260506091526 15 201 4.8 8.0 0.00 0.00 0.00 70 1010.3
20260506091421 15 202 4.8 8.0 0.00 0.00 0.00 70 1010.3
20260506091318 15 202 4.8 8.0 0.00 0.00 0.00 70 1010.3
20260506091245 15 202 4.8 8.0 0.00 0.00 0.00 70 1010.3
20260506091137 15 202 4.8 8.0 0.00 0.00 0.00 70 1010.3
20260506091032 15 202 4.8 8.0 0.00 0.00 0.00 70 1010.3
20260506090930 15 202 4.8 8.0 0.00 0.00 0.00 69 1010.3
20260506090835 15 206 4.8 8.0 0.00 0.00 0.00 69 1010.3
20260506090713 15 206 4.8 8.0 0.00 0.00 0.00 69 1010.3
20260506090641 15 206 4.8 8.0 0.00 0.00 0.00 69 1010.3
20260506090539 15 206 4.8 6.4 0.00 0.00 0.00 69 1010.2
20260506090445 15 206 4.8 8.0 0.00 0.00 0.00 69 1010.2
20260506090321 15 206 4.8 8.0 0.00 0.00 0.00 69 1010.2
20260506090229 15 206 4.8 8.0 0.00 0.00 0.00 69 1010.2
20260506090123 15 206 4.8 8.0 0.00 0.00 0.00 69 1010.2
20260506090049 15 206 4.8 8.0 0.00 0.00 0.00 69 1010.2
20260506085923 15 206 4.8 8.0 0.00 0.00 0.00 69 1010.2
20260506085829 15 206 4.8 8.0 0.00 0.00 0.00 69 1010.2
20260506085752 15 207 4.8 8.0 0.00 0.00 0.00 69 1010.2
20260506085705 15 207 4.8 8.0 0.00 0.00 0.00 69 1010.2
20260506085515 15 208 4.8 8.0 0.00 0.00 0.00 69 1010.2
20260506085413 15 208 4.8 8.0 0.00 0.00 0.00 69 1010.2
20260506085319 15 210 4.8 8.0 0.00 0.00 0.00 69 1010.2
20260506085219 15 210 4.8 8.0 0.00 0.00 0.00 69 1010.2
20260506085143 15 210 4.8 8.0 0.00 0.00 0.00 69 1010.2
20260506085018 15 210 4.8 8.0 0.00 0.00 0.00 69 1010.2
20260506084929 15 210 4.8 8.0 0.00 0.00 0.00 69 1010.2
20260506084828 15 210 4.8 6.4 0.00 0.00 0.00 69 1010.2
20260506084733 15 210 4.8 6.4 0.00 0.00 0.00 69 1010.3
20260506084631 15 210 4.8 6.4 0.00 0.00 0.00 69 1010.3
20260506084535 15 210 4.8 6.4 0.00 0.00 0.00 69 1010.3
20260506084425 15 210 4.8 6.4 0.00 0.00 0.00 69 1010.2
20260506084330 15 210 3.2 6.4 0.00 0.00 0.00 69 1010.2
20260506084232 15 210 3.2 6.4 0.00 0.00 0.00 69 1010.2
20260506084131 15 210 3.2 6.4 0.00 0.00 0.00 69 1010.3
20260506084018 15 210 3.2 6.4 0.00 0.00 0.00 69 1010.3
20260506083915 15 210 4.8 6.4 0.00 0.00 0.00 69 1010.3
20260506083840 15 210 4.8 6.4 0.00 0.00 0.00 69 1010.3
20260506083719 15 210 3.2 6.4 0.00 0.00 0.00 69 1010.3
20260506083644 15 210 3.2 6.4 0.00 0.00 0.00 69 1010.3
20260506083518 15 210 3.2 6.4 0.00 0.00 0.00 69 1010.3
20260506083424 15 210 3.2 6.4 0.00 0.00 0.00 69 1010.3
20260506083321 15 210 4.8 6.4 0.00 0.00 0.00 69 1010.3
20260506083220 15 210 4.8 6.4 0.00 0.00 0.00 69 1010.3
20260506083125 15 210 4.8 6.4 0.00 0.00 0.00 69 1010.3
20260506083023 15 210 4.8 6.4 0.00 0.00 0.00 69 1010.2
20260506082929 15 210 4.8 6.4 0.00 0.00 0.00 69 1010.2
20260506082830 15 210 4.8 6.4 0.00 0.00 0.00 69 1010.3
20260506082735 15 210 4.8 6.4 0.00 0.00 0.00 69 1010.3
20260506082703 15 210 4.8 6.4 0.00 0.00 0.00 69 1010.3
20260506082517 15 210 4.8 6.4 0.00 0.00 0.00 69 1010.3
20260506082415 15 210 3.2 4.8 0.00 0.00 0.00 69 1010.3
20260506082340 15 210 3.2 4.8 0.00 0.00 0.00 69 1010.3
20260506082218 15 210 3.2 4.8 0.00 0.00 0.00 69 1010.3
20260506082149 15 210 3.2 4.8 0.00 0.00 0.00 69 1010.3
20260506082024 15 210 3.2 4.8 0.00 0.00 0.00 69 1010.3
20260506081929 15 210 3.2 6.4 0.00 0.00 0.00 69 1010.3
20260506081825 15 210 3.2 6.4 0.00 0.00 0.00 69 1010.3
20260506081731 15 210 3.2 6.4 0.00 0.00 0.00 69 1010.3
20260506081647 15 210 3.2 6.4 0.00 0.00 0.00 68 1010.3
20260506081513 15 210 4.8 6.4 0.00 0.00 0.00 68 1010.2
20260506081427 15 210 4.8 6.4 0.00 0.00 0.00 68 1010.2
20260506081315 15 210 4.8 6.4 0.00 0.00 0.00 68 1010.2
20260506081242 15 210 4.8 6.4 0.00 0.00 0.00 68 1010.2
20260506081137 15 210 4.8 6.4 0.00 0.00 0.00 68 1010.3
20260506081043 15 210 3.2 4.8 0.00 0.00 0.00 68 1010.3
20260506080938 15 210 3.2 4.8 0.00 0.00 0.00 68 1010.2
20260506080824 15 210 3.2 4.8 0.00 0.00 0.00 68 1010.2
20260506080729 15 210 3.2 4.8 0.00 0.00 0.00 68 1010.2
20260506080625 15 210 3.2 4.8 0.00 0.00 0.00 68 1010.2
20260506080534 15 210 3.2 4.8 0.00 0.00 0.00 68 1010.2
20260506080429 15 210 3.2 4.8 0.00 0.00 0.00 68 1010.2
20260506080332 15 210 3.2 4.8 0.00 0.00 0.00 68 1010.2
20260506080226 15 210 3.2 4.8 0.00 0.00 0.00 68 1010.2
20260506080152 15 210 3.2 4.8 0.00 0.00 0.00 68 1010.2
20260506073521 16 210 0.0 1.6 0.00 0.00 0.00 67 1010.0
20260506073427 16 210 0.0 0.0 0.00 0.00 0.00 67 1010.0
20260506073323 16 210 0.0 0.0 0.00 0.00 0.00 67 1009.9
20260506073251 16 210 0.0 0.0 0.00 0.00 0.00 67 1009.9
20260506073125 16 210 0.0 0.0 0.00 0.00 0.00 67 1009.9
20260506073051 16 210 0.0 0.0 0.00 0.00 0.00 67 1009.9
20260506072931 16 210 0.0 0.0 0.00 0.00 0.00 67 1009.9
20260506072836 16 210 0.0 0.0 0.00 0.00 0.00 67 1009.9
20260506072713 16 210 0.0 0.0 0.00 0.00 0.00 67 1009.9
20260506072642 16 210 0.0 0.0 0.00 0.00 0.00 67 1009.9
20260506072517 16 210 0.0 0.0 0.00 0.00 0.00 66 1009.9
20260506072413 16 210 0.0 0.0 0.00 0.00 0.00 66 1009.9
20260506072314 16 210 0.0 0.0 0.00 0.00 0.00 66 1009.9
20260506072222 16 210 0.0 0.0 0.00 0.00 0.00 66 1009.8
20260506072117 16 210 0.0 0.0 0.00 0.00 0.00 66 1009.8
20260506072024 16 210 0.0 0.0 0.00 0.00 0.00 66 1009.9
20260506071921 16 210 0.0 0.0 0.00 0.00 0.00 66 1009.9
20260506071818 16 210 0.0 0.0 0.00 0.00 0.00 66 1009.8
20260506071725 16 210 0.0 0.0 0.00 0.00 0.00 66 1009.8
20260506071625 16 210 0.0 0.0 0.00 0.00 0.00 65 1009.8
20260506071522 16 210 0.0 0.0 0.00 0.00 0.00 65 1009.8
20260506071429 16 210 0.0 0.0 0.00 0.00 0.00 65 1009.8
20260506071327 16 210 0.0 0.0 0.00 0.00 0.00 65 1009.8
20260506071233 16 210 0.0 0.0 0.00 0.00 0.00 65 1009.7
20260506071132 16 210 0.0 0.0 0.00 0.00 0.00 65 1009.8
20260506071056 16 210 0.0 0.0 0.00 0.00 0.00 65 1009.8
20260506070833 16 210 0.0 0.0 0.00 0.00 0.00 64 1009.7
20260506070730 16 210 0.0 0.0 0.00 0.00 0.00 64 1009.7
20260506070636 16 210 0.0 0.0 0.00 0.00 0.00 64 1009.7
20260506070548 16 210 0.0 0.0 0.00 0.00 0.00 64 1009.7
20260506070433 16 210 0.0 0.0 0.00 0.00 0.00 64 1009.7
20260506070329 16 210 0.0 0.0 0.00 0.00 0.00 64 1009.6
20260506070238 16 210 0.0 0.0 0.00 0.00 0.00 64 1009.6
20260506070117 16 210 0.0 3.2 0.00 0.00 0.00 64 1009.6
20260506062433 17 210 1.6 3.2 0.00 0.00 0.00 60 1009.4
20260506062358 17 210 1.6 3.2 0.00 0.00 0.00 60 1009.4
20260506062215 17 210 0.0 3.2 0.00 0.00 0.00 60 1009.3
20260506062140 17 210 0.0 3.2 0.00 0.00 0.00 60 1009.4
20260506062045 17 210 0.0 3.2 0.00 0.00 0.00 60 1009.3
20260506061918 17 210 0.0 3.2 0.00 0.00 0.00 60 1009.3
20260506061815 17 210 0.0 3.2 0.00 0.00 0.00 59 1009.3
20260506061724 17 210 0.0 3.2 0.00 0.00 0.00 59 1009.3
20260506061621 17 210 1.6 3.2 0.00 0.00 0.00 60 1009.3
20260506061529 17 210 1.6 4.8 0.00 0.00 0.00 60 1009.3
20260506061426 18 210 1.6 6.4 0.00 0.00 0.00 59 1009.2
20260506061323 18 210 1.6 6.4 0.00 0.00 0.00 59 1009.2
20260506061231 18 210 1.6 6.4 0.00 0.00 0.00 59 1009.2
20260506061125 18 210 1.6 6.4 0.00 0.00 0.00 59 1009.1
20260506061035 18 210 1.6 6.4 0.00 0.00 0.00 59 1009.1
20260506060930 18 210 0.0 6.4 0.00 0.00 0.00 60 1009.1
20260506060814 18 210 3.2 6.4 0.00 0.00 0.00 60 1009.1
20260506060741 18 210 4.8 6.4 0.00 0.00 0.00 60 1009.1
20260506060617 18 210 4.8 6.4 0.00 0.00 0.00 60 1009.1
20260506060524 18 236 3.2 6.4 0.00 0.00 0.00 60 1009.1
20260506060441 18 236 4.8 6.4 0.00 0.00 0.00 60 1009.1
20260506060325 18 236 4.8 6.4 0.00 0.00 0.00 60 1009.1
20260506060226 18 236 4.8 6.4 0.00 0.00 0.00 60 1009.1
20260506060134 18 237 3.2 4.8 0.00 0.00 0.00 60 1009.0
20260506051326 20 304 0.0 3.2 0.00 0.00 0.00 53 1008.5
20260506051232 20 304 0.0 3.2 0.00 0.00 0.00 53 1008.5
20260506051131 20 304 0.0 3.2 0.00 0.00 0.00 53 1008.5
20260506051027 20 304 0.0 3.2 0.00 0.00 0.00 53 1008.5
20260506050931 20 304 1.6 3.2 0.00 0.00 0.00 53 1008.5
20260506050900 20 304 1.6 3.2 0.00 0.00 0.00 53 1008.5
20260506050717 20 304 1.6 3.2 0.00 0.00 0.00 54 1008.5
20260506050616 20 304 1.6 3.2 0.00 0.00 0.00 54 1008.5
20260506050543 20 304 1.6 3.2 0.00 0.00 0.00 54 1008.5
20260506050419 20 304 1.6 3.2 0.00 0.00 0.00 54 1008.5
20260506050325 20 304 1.6 3.2 0.00 0.00 0.00 54 1008.5
20260506050223 20 302 0.0 1.6 0.00 0.00 0.00 54 1008.5
20260506050117 20 302 0.0 1.6 0.00 0.00 0.00 53 1008.5
20260506045130 20 300 1.6 3.2 0.00 0.00 0.00 51 1008.4
20260506045052 20 300 1.6 3.2 0.00 0.00 0.00 51 1008.5
20260506044958 20 300 0.0 4.8 0.00 0.00 0.00 50 1008.4
20260506044813 20 300 1.6 4.8 0.00 0.00 0.00 50 1008.5
20260506044729 20 300 1.6 4.8 0.00 0.00 0.00 50 1008.5
20260506044635 21 300 1.6 4.8 0.00 0.00 0.00 49 1008.4
20260506044514 21 300 0.0 4.8 0.00 0.00 0.00 49 1008.4
20260506044440 21 300 1.6 4.8 0.00 0.00 0.00 49 1008.4
20260506044318 21 300 3.2 4.8 0.00 0.00 0.00 48 1008.4
20260506044216 21 300 3.2 4.8 0.00 0.00 0.00 48 1008.4
20260506044123 21 300 1.6 4.8 0.00 0.00 0.00 47 1008.4
20260506044019 21 300 1.6 4.8 0.00 0.00 0.00 47 1008.4
20260506043921 21 300 3.2 4.8 0.00 0.00 0.00 46 1008.3
20260506043828 21 300 3.2 4.8 0.00 0.00 0.00 46 1008.3
20260506043725 21 300 1.6 4.8 0.00 0.00 0.00 46 1008.3
20260506043653 21 335 1.6 4.8 0.00 0.00 0.00 45 1008.3
20260506043535 21 335 1.6 4.8 0.00 0.00 0.00 45 1008.3
20260506043413 21 336 1.6 4.8 0.00 0.00 0.00 44 1008.3
20260506043340 21 337 0.0 4.8 0.00 0.00 0.00 44 1008.3
20260506043217 21 337 0.0 4.8 0.00 0.00 0.00 44 1008.3
20260506043118 21 337 0.0 4.8 0.00 0.00 0.00 44 1008.3
20260506043025 21 337 0.0 4.8 0.00 0.00 0.00 44 1008.3
20260506042952 21 337 1.6 4.8 0.00 0.00 0.00 44 1008.3
20260506042829 21 337 1.6 4.8 0.00 0.00 0.00 44 1008.3
20260506042734 21 337 1.6 4.8 0.00 0.00 0.00 44 1008.3
20260506042700 21 337 1.6 4.8 0.00 0.00 0.00 44 1008.3
20260506042535 21 337 1.6 3.2 0.00 0.00 0.00 44 1008.3
20260506042440 21 337 0.0 3.2 0.00 0.00 0.00 44 1008.3
20260506042320 21 337 0.0 0.0 0.00 0.00 0.00 44 1008.2
20260506042248 21 337 0.0 0.0 0.00 0.00 0.00 44 1008.2
20260506042123 21 337 0.0 0.0 0.00 0.00 0.00 43 1008.1
20260506042050 21 337 0.0 3.2 0.00 0.00 0.00 43 1008.1
20260506041936 21 337 0.0 3.2 0.00 0.00 0.00 43 1008.1
20260506041814 21 337 0.0 3.2 0.00 0.00 0.00 43 1008.1
20260506041732 21 337 0.0 3.2 0.00 0.00 0.00 43 1008.1
20260506041620 22 337 0.0 3.2 0.00 0.00 0.00 43 1008.1
20260506041518 22 337 0.0 3.2 0.00 0.00 0.00 43 1008.1
20260506041445 22 337 0.0 3.2 0.00 0.00 0.00 42 1008.1
20260506041319 22 337 0.0 3.2 0.00 0.00 0.00 42 1008.1
20260506041219 22 337 1.6 3.2 0.00 0.00 0.00 42 1008.0
20260506041124 22 337 1.6 3.2 0.00 0.00 0.00 41 1008.1
20260506041012 22 337 0.0 3.2 0.00 0.00 0.00 41 1008.1
20260506040939 22 337 0.0 4.8 0.00 0.00 0.00 41 1008.0
20260506040829 22 337 0.0 4.8 0.00 0.00 0.00 42 1008.0
20260506040747 22 337 0.0 6.4 0.00 0.00 0.00 41 1008.0
20260506040634 22 337 0.0 6.4 0.00 0.00 0.00 41 1008.0
20260506040559 22 337 1.6 8.0 0.00 0.00 0.00 41 1008.0
20260506040433 22 337 1.6 8.0 0.00 0.00 0.00 41 1008.0
20260506040317 22 337 1.6 8.0 0.00 0.00 0.00 41 1007.9
20260506040215 22 337 3.2 8.0 0.00 0.00 0.00 41 1007.9
20260506040142 22 337 3.2 8.0 0.00 0.00 0.00 41 1007.9
20260506040021 22 337 3.2 8.0 0.00 0.00 0.00 41 1007.9
20260506035919 22 337 3.2 8.0 0.00 0.00 0.00 41 1007.9
20260506035844 22 337 4.8 8.0 0.00 0.00 0.00 41 1007.9
20260506035730 22 337 4.8 8.0 0.00 0.00 0.00 41 1007.9
20260506035626 22 337 4.8 9.7 0.00 0.00 0.00 41 1007.9
20260506035521 22 341 4.8 9.7 0.00 0.00 0.00 41 1007.8
20260506035426 22 341 3.2 9.7 0.00 0.00 0.00 41 1007.8
20260506035335 22 341 3.2 9.7 0.00 0.00 0.00 41 1007.8
20260506035231 22 341 3.2 9.7 0.00 0.00 0.00 41 1007.8
20260506035126 22 343 4.8 9.7 0.00 0.00 0.00 41 1007.6
20260506035031 22 343 6.4 9.7 0.00 0.00 0.00 41 1007.6
20260506034930 22 344 6.4 9.7 0.00 0.00 0.00 41 1007.6
20260506034836 22 337 6.4 9.7 0.00 0.00 0.00 41 1007.6
20260506034719 22 356 4.8 9.7 0.00 0.00 0.00 41 1007.6
20260506034635 22 346 4.8 9.7 0.00 0.00 0.00 41 1007.6
20260506034519 22 346 4.8 9.7 0.00 0.00 0.00 40 1007.6
20260506034415 22 331 3.2 6.4 0.00 0.00 0.00 40 1007.5
20260506034322 22 329 3.2 6.4 0.00 0.00 0.00 40 1007.5
20260506034240 22 329 3.2 8.0 0.00 0.00 0.00 40 1007.5
20260506034123 22 329 3.2 8.0 0.00 0.00 0.00 40 1007.5
20260506034021 22 329 3.2 9.7 0.00 0.00 0.00 40 1007.5
20260506033931 22 327 3.2 9.7 0.00 0.00 0.00 40 1007.5
20260506033826 22 327 4.8 9.7 0.00 0.00 0.00 40 1007.4
20260506033731 22 327 4.8 9.7 0.00 0.00 0.00 40 1007.4
20260506033635 22 326 4.8 9.7 0.00 0.00 0.00 40 1007.4
20260506033530 22 325 4.8 9.7 0.00 0.00 0.00 40 1007.4
20260506033427 22 324 4.8 9.7 0.00 0.00 0.00 40 1007.4
20260506033334 23 324 4.8 9.7 0.00 0.00 0.00 40 1007.4
20260506033217 23 324 4.8 9.7 0.00 0.00 0.00 40 1007.3
20260506033113 23 327 4.8 9.7 0.00 0.00 0.00 39 1007.3
20260506033019 23 325 4.8 9.7 0.00 0.00 0.00 39 1007.3
20260506032915 23 323 4.8 9.7 0.00 0.00 0.00 39 1007.3
20260506032822 23 323 6.4 9.7 0.00 0.00 0.00 39 1007.3
20260506032721 23 332 6.4 9.7 0.00 0.00 0.00 39 1007.3
20260506032622 23 326 4.8 8.0 0.00 0.00 0.00 39 1007.2
20260506032528 23 325 4.8 8.0 0.00 0.00 0.00 39 1007.2
20260506032454 23 321 4.8 8.0 0.00 0.00 0.00 39 1007.2
20260506032329 23 319 4.8 6.4 0.00 0.00 0.00 39 1007.2
20260506032234 23 319 4.8 6.4 0.00 0.00 0.00 39 1007.2
20260506032132 23 316 3.2 6.4 0.00 0.00 0.00 39 1007.2
20260506032016 23 315 1.6 8.0 0.00 0.00 0.00 39 1007.2
20260506031913 23 314 3.2 12.9 0.00 0.00 0.00 39 1007.2
20260506031815 23 314 3.2 12.9 0.00 0.00 0.00 39 1007.2
20260506031724 23 314 3.2 12.9 0.00 0.00 0.00 39 1007.1
20260506031619 23 314 3.2 12.9 0.00 0.00 0.00 38 1007.2
20260506031544 23 313 1.6 12.9 0.00 0.00 0.00 38 1007.2
20260506031421 23 313 3.2 12.9 0.00 0.00 0.00 38 1007.2
20260506031327 23 313 3.2 12.9 0.00 0.00 0.00 38 1007.2
20260506031233 23 312 4.8 12.9 0.00 0.00 0.00 38 1007.1
20260506031147 23 312 8.0 14.5 0.00 0.00 0.00 38 1007.1
20260506031035 23 318 8.0 14.5 0.00 0.00 0.00 38 1007.1
20260506031000 23 300 4.8 16.1 0.00 0.00 0.00 38 1007.1
20260506030814 23 299 4.8 16.1 0.00 0.00 0.00 38 1007.2
20260506030714 23 300 6.4 16.1 0.00 0.00 0.00 38 1007.1
20260506030621 23 299 6.4 16.1 0.00 0.00 0.00 38 1007.1
20260506030535 23 299 9.7 16.1 0.00 0.00 0.00 38 1007.1
20260506030420 23 323 9.7 17.7 0.00 0.00 0.00 38 1007.0
20260506030319 23 321 9.7 17.7 0.00 0.00 0.00 38 1007.1
20260506030216 23 304 9.7 17.7 0.00 0.00 0.00 38 1007.1
20260506030118 23 354 8.0 17.7 0.00 0.00 0.00 38 1007.0
20260506030016 23 314 6.4 17.7 0.00 0.00 0.00 38 1007.1
20260506025921 23 314 8.0 17.7 0.00 0.00 0.00 38 1007.0
20260506025816 23 323 9.7 17.7 0.00 0.00 0.00 37 1007.0
20260506025727 23 325 11.3 17.7 0.00 0.00 0.00 37 1007.0
20260506025623 23 320 12.9 17.7 0.00 0.00 0.00 37 1007.0
20260506025521 23 312 11.3 17.7 0.00 0.00 0.00 37 1007.0
20260506025445 23 315 8.0 14.5 0.00 0.00 0.00 38 1007.0
20260506025330 23 309 6.4 14.5 0.00 0.00 0.00 37 1007.0
20260506025230 23 297 8.0 14.5 0.00 0.00 0.00 37 1007.0
20260506025125 23 310 8.0 14.5 0.00 0.00 0.00 37 1007.0
20260506025016 24 306 9.7 17.7 0.00 0.00 0.00 37 1007.0
20260506024914 24 310 8.0 17.7 0.00 0.00 0.00 37 1006.9
20260506024819 24 298 6.4 17.7 0.00 0.00 0.00 37 1006.9
20260506024748 24 298 4.8 17.7 0.00 0.00 0.00 37 1006.9
20260506024621 24 298 6.4 17.7 0.00 0.00 0.00 37 1007.0
20260506024547 24 319 6.4 17.7 0.00 0.00 0.00 37 1006.9
20260506024423 24 308 9.7 17.7 0.00 0.00 0.00 37 1006.9
20260506024320 24 308 9.7 17.7 0.00 0.00 0.00 37 1006.9
20260506024230 24 313 8.0 17.7 0.00 0.00 0.00 37 1006.9
20260506024158 24 289 8.0 17.7 0.00 0.00 0.00 36 1006.9
20260506024012 24 330 9.7 14.5 0.00 0.00 0.00 36 1006.9
20260506023938 24 331 9.7 14.5 0.00 0.00 0.00 36 1006.9
20260506023814 24 306 8.0 14.5 0.00 0.00 0.00 36 1006.9
20260506023741 24 289 8.0 14.5 0.00 0.00 0.00 36 1006.9
20260506023615 24 299 8.0 14.5 0.00 0.00 0.00 36 1006.9
20260506023526 24 298 8.0 16.1 0.00 0.00 0.00 36 1006.9
20260506023424 24 305 9.7 16.1 0.00 0.00 0.00 36 1006.9
20260506023321 25 306 9.7 16.1 0.00 0.00 0.00 36 1006.8
20260506023225 25 312 8.0 16.1 0.00 0.00 0.00 36 1006.8
20260506023150 25 312 8.0 16.1 0.00 0.00 0.00 36 1006.8
20260506023025 25 302 8.0 16.1 0.00 0.00 0.00 36 1006.8
20260506022951 25 308 9.7 16.1 0.00 0.00 0.00 35 1006.8
20260506022827 25 307 11.3 16.1 0.00 0.00 0.00 35 1006.8
20260506022739 25 302 9.7 16.1 0.00 0.00 0.00 35 1006.8
20260506022614 25 305 9.7 16.1 0.00 0.00 0.00 35 1006.7
20260506022541 25 306 9.7 17.7 0.00 0.00 0.00 35 1006.7
20260506022418 25 303 8.0 17.7 0.00 0.00 0.00 35 1006.7
20260506022315 25 312 6.4 17.7 0.00 0.00 0.00 35 1006.7
20260506022215 25 282 8.0 17.7 0.00 0.00 0.00 34 1006.7
20260506022123 25 331 8.0 17.7 0.00 0.00 0.00 34 1006.7
20260506022020 25 320 8.0 17.7 0.00 0.00 0.00 34 1006.7
20260506021918 25 304 8.0 17.7 0.00 0.00 0.00 34 1006.7
20260506021833 25 305 9.7 17.7 0.00 0.00 0.00 34 1006.7
20260506021729 25 356 12.9 17.7 0.00 0.00 0.00 34 1006.7
20260506021628 25 325 12.9 17.7 0.00 0.00 0.00 34 1006.7
20260506021552 25 302 12.9 25.7 0.00 0.00 0.00 34 1006.8
20260506021441 25 296 12.9 32.2 0.00 0.00 0.00 34 1006.7
20260506021318 25 321 9.7 32.2 0.00 0.00 0.00 34 1006.7
20260506021214 25 264 11.3 32.2 0.00 0.00 0.00 34 1006.7
20260506021118 25 298 9.7 32.2 0.00 0.00 0.00 33 1006.7
20260506021015 25 310 11.3 32.2 0.00 0.00 0.00 33 1006.7
20260506020921 25 308 11.3 32.2 0.00 0.00 0.00 33 1006.7
20260506020816 25 312 11.3 32.2 0.00 0.00 0.00 33 1006.7
20260506020729 25 352 14.5 32.2 0.00 0.00 0.00 33 1006.7
20260506020622 25 15 16.1 32.2 0.00 0.00 0.00 33 1006.5
20260506020549 25 10 9.7 20.9 0.00 0.00 0.00 31 1006.5
20260506020424 25 52 6.4 14.5 0.00 0.00 0.00 31 1006.6
20260506020327 25 10 6.4 14.5 0.00 0.00 0.00 31 1006.6
20260506020225 25 30 4.8 16.1 0.00 0.00 0.00 31 1006.6
20260506020153 25 71 3.2 16.1 0.00 0.00 0.00 31 1006.6
20260506020028 25 30 6.4 16.1 0.00 0.00 0.00 31 1006.6
20260506015937 25 15 8.0 16.1 0.00 0.00 0.00 31 1006.6
20260506015840 25 20 8.0 16.1 0.00 0.00 0.00 31 1006.6
20260506015739 26 40 6.4 16.1 0.00 0.00 0.00 31 1006.6
20260506015613 26 34 3.2 16.1 0.00 0.00 0.00 31 1006.6
20260506015539 26 40 6.4 16.1 0.00 0.00 0.00 31 1006.6
20260506015423 26 27 8.0 16.1 0.00 0.00 0.00 31 1006.6
20260506015320 26 15 8.0 16.1 0.00 0.00 0.00 31 1006.6
20260506015221 26 38 9.7 16.1 0.00 0.00 0.00 30 1006.6
20260506015130 26 21 9.7 16.1 0.00 0.00 0.00 30 1006.6
20260506015026 26 10 9.7 16.1 0.00 0.00 0.00 30 1006.6
20260506014923 26 50 8.0 14.5 0.00 0.00 0.00 30 1006.6
20260506014828 26 21 6.4 14.5 0.00 0.00 0.00 30 1006.6
20260506014725 26 38 4.8 14.5 0.00 0.00 0.00 30 1006.6
20260506014633 26 48 8.0 14.5 0.00 0.00 0.00 30 1006.6
20260506014514 26 353 8.0 14.5 0.00 0.00 0.00 30 1006.6
20260506014440 26 23 6.4 14.5 0.00 0.00 0.00 30 1006.6
20260506014318 26 24 8.0 14.5 0.00 0.00 0.00 30 1006.5
20260506014217 26 357 6.4 16.1 0.00 0.00 0.00 30 1006.5
20260506014141 26 67 6.4 16.1 0.00 0.00 0.00 30 1006.5
20260506014022 26 15 6.4 16.1 0.00 0.00 0.00 31 1006.5
20260506013916 26 5 6.4 19.3 0.00 0.00 0.00 30 1006.5
20260506013813 26 69 6.4 19.3 0.00 0.00 0.00 31 1006.5
20260506013744 26 43 4.8 19.3 0.00 0.00 0.00 31 1006.5
20260506013647 26 15 6.4 19.3 0.00 0.00 0.00 31 1006.5
20260506013524 26 10 6.4 19.3 0.00 0.00 0.00 30 1006.5
20260506013430 26 5 9.7 19.3 0.00 0.00 0.00 30 1006.5
20260506013325 26 337 11.3 19.3 0.00 0.00 0.00 30 1006.5
20260506013230 26 40 9.7 19.3 0.00 0.00 0.00 30 1006.5
20260506013128 26 5 9.7 20.9 0.00 0.00 0.00 30 1006.5
20260506013054 26 15 8.0 20.9 0.00 0.00 0.00 31 1006.5
20260506012913 26 33 4.8 20.9 0.00 0.00 0.00 30 1006.5
20260506012839 26 51 4.8 20.9 0.00 0.00 0.00 30 1006.5
20260506012735 26 29 8.0 20.9 0.00 0.00 0.00 30 1006.5
20260506012642 26 34 9.7 20.9 0.00 0.00 0.00 30 1006.5
20260506012518 26 10 11.3 20.9 0.00 0.00 0.00 30 1006.5
20260506012414 26 46 12.9 20.9 0.00 0.00 0.00 30 1006.5
20260506012325 26 19 11.3 20.9 0.00 0.00 0.00 30 1006.4
20260506012221 26 37 8.0 20.9 0.00 0.00 0.00 29 1006.4
20260506012128 26 335 8.0 20.9 0.00 0.00 0.00 29 1006.4
20260506012025 26 333 9.7 20.9 0.00 0.00 0.00 29 1006.4
20260506011952 26 347 11.3 20.9 0.00 0.00 0.00 29 1006.4
20260506011828 26 23 11.3 20.9 0.00 0.00 0.00 30 1006.5
20260506011735 26 19 8.0 22.5 0.00 0.00 0.00 29 1006.4
20260506011613 26 15 8.0 22.5 0.00 0.00 0.00 29 1006.4
20260506011539 26 19 8.0 22.5 0.00 0.00 0.00 29 1006.4
20260506011434 26 10 9.7 22.5 0.00 0.00 0.00 30 1006.5
20260506011339 26 10 11.3 22.5 0.00 0.00 0.00 30 1006.5
20260506011216 26 15 9.7 22.5 0.00 0.00 0.00 30 1006.5
20260506011119 26 351 9.7 22.5 0.00 0.00 0.00 30 1006.5
20260506011017 26 15 14.5 22.5 0.00 0.00 0.00 30 1006.5
20260506010924 27 44 14.5 22.5 0.00 0.00 0.00 30 1006.5
20260506010824 27 5 11.3 22.5 0.00 0.00 0.00 29 1006.5
20260506010731 27 66 9.7 19.3 0.00 0.00 0.00 29 1006.5
20260506010631 27 34 6.4 19.3 0.00 0.00 0.00 29 1006.5
20260506010533 27 59 6.4 19.3 0.00 0.00 0.00 30 1006.4
20260506010431 27 39 8.0 19.3 0.00 0.00 0.00 29 1006.4
20260506010328 27 42 8.0 19.3 0.00 0.00 0.00 30 1006.4
20260506010220 27 44 6.4 19.3 0.00 0.00 0.00 29 1006.4
20260506010115 27 350 8.0 19.3 0.00 0.00 0.00 29 1006.4
20260506010013 27 79 9.7 19.3 0.00 0.00 0.00 29 1006.4
20260506005920 27 32 9.7 20.9 0.00 0.00 0.00 29 1006.4
20260506005818 27 22 8.0 20.9 0.00 0.00 0.00 29 1006.4
20260506005725 27 5 6.4 20.9 0.00 0.00 0.00 29 1006.4
20260506005620 27 33 8.0 20.9 0.00 0.00 0.00 30 1006.4
20260506005529 27 29 6.4 20.9 0.00 0.00 0.00 30 1006.4
20260506005427 27 38 6.4 20.9 0.00 0.00 0.00 29 1006.4
20260506005334 27 30 9.7 20.9 0.00 0.00 0.00 29 1006.4
20260506005229 27 337 12.9 20.9 0.00 0.00 0.00 29 1006.4
20260506005138 27 28 14.5 20.9 0.00 0.00 0.00 29 1006.4
20260506005040 27 333 12.9 20.9 0.00 0.00 0.00 30 1006.4
20260506004937 27 329 8.0 22.5 0.00 0.00 0.00 30 1006.4
20260506004814 27 326 8.0 22.5 0.00 0.00 0.00 30 1006.4
20260506004725 27 331 8.0 22.5 0.00 0.00 0.00 30 1006.4
20260506004619 27 306 9.7 22.5 0.00 0.00 0.00 30 1006.4
20260506004524 27 315 11.3 22.5 0.00 0.00 0.00 30 1006.3
20260506004419 27 353 8.0 22.5 0.00 0.00 0.00 30 1006.3
20260506004326 27 26 9.7 22.5 0.00 0.00 0.00 30 1006.3
20260506004222 27 38 14.5 22.5 0.00 0.00 0.00 30 1006.3
20260506004130 27 20 16.1 22.5 0.00 0.00 0.00 30 1006.3
20260506004035 27 15 16.1 22.5 0.00 0.00 0.00 30 1006.3
20260506003912 27 10 9.7 22.5 0.00 0.00 0.00 30 1006.3
20260506003829 27 349 6.4 22.5 0.00 0.00 0.00 31 1006.3
20260506003737 27 42 6.4 22.5 0.00 0.00 0.00 30 1006.2
20260506003612 27 38 9.7 22.5 0.00 0.00 0.00 30 1006.2
20260506003517 27 29 12.9 22.5 0.00 0.00 0.00 30 1006.3
20260506003414 26 27 12.9 22.5 0.00 0.00 0.00 31 1006.2
20260506003344 26 356 8.0 20.9 0.00 0.00 0.00 31 1006.3
20260506003221 26 21 6.4 20.9 0.00 0.00 0.00 30 1006.2
20260506003150 26 337 8.0 20.9 0.00 0.00 0.00 30 1006.2
20260506003024 26 10 8.0 20.9 0.00 0.00 0.00 30 1006.3
20260506002930 27 328 8.0 20.9 0.00 0.00 0.00 30 1006.3
20260506002856 27 325 11.3 20.9 0.00 0.00 0.00 30 1006.3
20260506002714 27 353 11.3 20.9 0.00 0.00 0.00 30 1006.4
20260506002613 27 348 12.9 20.9 0.00 0.00 0.00 30 1006.4
20260506002538 27 44 12.9 20.9 0.00 0.00 0.00 31 1006.4
20260506002416 27 15 11.3 19.3 0.00 0.00 0.00 30 1006.3
20260506002313 27 15 6.4 19.3 0.00 0.00 0.00 30 1006.3
20260506002220 27 337 6.4 19.3 0.00 0.00 0.00 30 1006.3
20260506002115 27 346 9.7 19.3 0.00 0.00 0.00 30 1006.3
20260506002020 27 5 9.7 19.3 0.00 0.00 0.00 30 1006.3
20260506001921 27 339 11.3 19.3 0.00 0.00 0.00 29 1006.3
20260506001828 27 357 12.9 19.3 0.00 0.00 0.00 29 1006.3
20260506001723 27 331 9.7 19.3 0.00 0.00 0.00 29 1006.3
20260506001631 27 312 6.4 19.3 0.00 0.00 0.00 29 1006.3
20260506001527 27 15 6.4 19.3 0.00 0.00 0.00 29 1006.3
20260506001431 27 350 8.0 19.3 0.00 0.00 0.00 29 1006.2
20260506001328 27 344 9.7 19.3 0.00 0.00 0.00 28 1006.2
20260506001239 27 29 8.0 19.3 0.00 0.00 0.00 29 1006.2
20260506001115 27 15 6.4 19.3 0.00 0.00 0.00 29 1006.2
20260506001012 27 50 8.0 19.3 0.00 0.00 0.00 29 1006.3
20260506000918 27 15 9.7 19.3 0.00 0.00 0.00 29 1006.3
20260506000815 27 15 8.0 19.3 0.00 0.00 0.00 29 1006.3
20260506000743 27 30 4.8 19.3 0.00 0.00 0.00 30 1006.2
20260506000618 27 102 3.2 19.3 0.00 0.00 0.00 29 1006.2
20260506000528 27 46 4.8 19.3 0.00 0.00 0.00 29 1006.2
20260506000425 27 66 8.0 19.3 0.00 0.00 0.00 30 1006.2
20260506000332 27 54 11.3 19.3 0.00 0.00 0.00 30 1006.2
20260506000229 27 45 8.0 19.3 0.00 0.00 0.00 30 1006.2
20260506000136 27 51 4.8 19.3 0.00 0.00 0.00 29 1006.2
20260506000032 27 53 3.2 16.1 0.00 0.00 0.00 29 1006.3
20260505235959 27 53 4.8 16.1 0.00 0.00 0.00 29 1006.2
20260505235820 27 27 3.2 16.1 0.00 0.00 0.00 29 1006.3
20260505235719 27 1 4.8 20.9 0.00 0.00 0.00 29 1006.2
20260505235624 27 44 6.4 20.9 0.00 0.00 0.00 30 1006.3
20260505235522 27 33 8.0 20.9 0.00 0.00 0.00 29 1006.3
20260505235449 27 354 6.4 20.9 0.00 0.00 0.00 29 1006.3
20260505235324 27 10 8.0 20.9 0.00 0.00 0.00 29 1006.2
20260505235230 27 19 9.7 20.9 0.00 0.00 0.00 30 1006.2
20260505235133 27 352 9.7 20.9 0.00 0.00 0.00 29 1006.2
20260505235026 27 21 11.3 22.5 0.00 0.00 0.00 29 1006.3
20260505234928 27 26 12.9 22.5 0.00 0.00 0.00 29 1006.3
20260505234855 27 50 12.9 27.4 0.00 0.00 0.00 29 1006.4
20260505234730 27 15 12.9 27.4 0.00 0.00 0.00 29 1006.4
20260505234629 27 22 9.7 27.4 0.00 0.00 0.00 29 1006.4
20260505234515 27 23 6.4 27.4 0.00 0.00 0.00 29 1006.3
20260505234412 27 356 8.0 27.4 0.00 0.00 0.00 29 1006.4
20260505234339 27 19 11.3 27.4 0.00 0.00 0.00 29 1006.4
20260505234217 27 43 12.9 27.4 0.00 0.00 0.00 29 1006.4
20260505234113 27 39 16.1 27.4 0.00 0.00 0.00 29 1006.4
20260505234017 27 28 16.1 27.4 0.00 0.00 0.00 29 1006.4
20260505233913 27 15 11.3 25.7 0.00 0.00 0.00 29 1006.3
20260505233823 27 48 8.0 20.9 0.00 0.00 0.00 29 1006.3
20260505233752 27 67 9.7 20.9 0.00 0.00 0.00 29 1006.3
20260505233626 27 38 12.9 20.9 0.00 0.00 0.00 29 1006.4
20260505233550 27 5 11.3 20.9 0.00 0.00 0.00 29 1006.4
20260505233427 27 356 12.9 20.9 0.00 0.00 0.00 29 1006.3
20260505233333 27 356 11.3 20.9 0.00 0.00 0.00 30 1006.4
20260505233229 27 351 8.0 20.9 0.00 0.00 0.00 30 1006.4
20260505233122 27 339 6.4 20.9 0.00 0.00 0.00 30 1006.4
20260505233032 27 23 4.8 20.9 0.00 0.00 0.00 29 1006.4
20260505232929 27 51 3.2 20.9 0.00 0.00 0.00 29 1006.4
20260505232834 27 51 4.8 22.5 0.00 0.00 0.00 29 1006.4
20260505232747 27 67 6.4 24.1 0.00 0.00 0.00 29 1006.4
20260505232631 27 44 9.7 24.1 0.00 0.00 0.00 29 1006.4
20260505232551 27 72 12.9 24.1 0.00 0.00 0.00 29 1006.4
20260505232421 27 35 12.9 24.1 0.00 0.00 0.00 29 1006.5
20260505232340 27 20 12.9 24.1 0.00 0.00 0.00 29 1006.5
20260505232236 27 331 12.9 24.1 0.00 0.00 0.00 29 1006.4
20260505232137 27 5 14.5 24.1 0.00 0.00 0.00 29 1006.5
20260505232021 27 357 14.5 24.1 0.00 0.00 0.00 29 1006.4
20260505231925 27 351 14.5 24.1 0.00 0.00 0.00 29 1006.4
20260505231830 27 10 9.7 22.5 0.00 0.00 0.00 30 1006.4
20260505231728 27 50 9.7 22.5 0.00 0.00 0.00 29 1006.4
20260505231623 27 31 11.3 22.5 0.00 0.00 0.00 29 1006.3
20260505231529 27 61 11.3 20.9 0.00 0.00 0.00 28 1006.3
20260505231426 27 83 12.9 20.9 0.00 0.00 0.00 29 1006.4
20260505231335 27 360 11.3 19.3 0.00 0.00 0.00 28 1006.4
20260505231231 27 19 9.7 19.3 0.00 0.00 0.00 28 1006.4
20260505231138 27 323 9.7 19.3 0.00 0.00 0.00 28 1006.4
20260505231034 27 10 8.0 19.3 0.00 0.00 0.00 28 1006.5
20260505230939 27 10 6.4 22.5 0.00 0.00 0.00 29 1006.5
20260505230816 27 15 8.0 22.5 0.00 0.00 0.00 28 1006.5
20260505230717 27 333 9.7 22.5 0.00 0.00 0.00 28 1006.5
20260505230622 27 23 9.7 22.5 0.00 0.00 0.00 28 1006.5
20260505230518 27 25 12.9 22.5 0.00 0.00 0.00 29 1006.5
20260505230424 27 33 11.3 22.5 0.00 0.00 0.00 29 1006.5
20260505230316 27 36 9.7 22.5 0.00 0.00 0.00 28 1006.5
20260505230224 27 15 12.9 22.5 0.00 0.00 0.00 28 1006.5
20260505230126 27 345 12.9 22.5 0.00 0.00 0.00 28 1006.5
20260505230044 27 5 11.3 22.5 0.00 0.00 0.00 29 1006.5
20260505225927 27 51 11.3 22.5 0.00 0.00 0.00 29 1006.5
20260505225829 27 19 8.0 22.5 0.00 0.00 0.00 29 1006.5
20260505225734 27 27 8.0 22.5 0.00 0.00 0.00 28 1006.5
20260505225632 27 63 8.0 22.5 0.00 0.00 0.00 28 1006.5
20260505225536 27 36 8.0 22.5 0.00 0.00 0.00 28 1006.5
20260505225412 27 69 16.1 22.5 0.00 0.00 0.00 30 1006.6
20260505225328 27 61 17.7 22.5 0.00 0.00 0.00 29 1006.6
20260505225242 27 71 16.1 22.5 0.00 0.00 0.00 29 1006.6
20260505225113 28 37 11.3 24.1 0.00 0.00 0.00 29 1006.5
20260505225040 28 358 9.7 24.1 0.00 0.00 0.00 29 1006.5
20260505224916 28 26 6.4 24.1 0.00 0.00 0.00 29 1006.5
20260505224813 28 63 9.7 24.1 0.00 0.00 0.00 29 1006.5
20260505224722 28 63 12.9 24.1 0.00 0.00 0.00 29 1006.6
20260505224622 28 59 12.9 24.1 0.00 0.00 0.00 29 1006.6
20260505224517 28 355 11.3 24.1 0.00 0.00 0.00 30 1006.6
20260505224419 28 65 14.5 24.1 0.00 0.00 0.00 30 1006.6
20260505224325 28 59 14.5 24.1 0.00 0.00 0.00 29 1006.6
20260505224242 28 23 9.7 24.1 0.00 0.00 0.00 29 1006.6
20260505224126 28 55 8.0 24.1 0.00 0.00 0.00 29 1006.6
20260505224019 28 36 6.4 29.0 0.00 0.00 0.00 29 1006.6
20260505223926 28 102 6.4 29.0 0.00 0.00 0.00 29 1006.7
20260505223825 28 19 8.0 29.0 0.00 0.00 0.00 28 1006.6
20260505223722 28 38 8.0 29.0 0.00 0.00 0.00 29 1006.7
20260505223626 28 10 6.4 29.0 0.00 0.00 0.00 29 1006.7
20260505223520 28 356 8.0 29.0 0.00 0.00 0.00 28 1006.6
20260505223445 28 356 12.9 29.0 0.00 0.00 0.00 29 1006.6
20260505223408 28 19 14.5 29.0 0.00 0.00 0.00 29 1006.7
20260505223304 28 21 12.9 29.0 0.00 0.00 0.00 29 1006.6
20260505223121 28 25 8.0 19.3 0.00 0.00 0.00 29 1006.6
20260505223037 28 10 8.0 17.7 0.00 0.00 0.00 29 1006.6
20260505222941 28 42 9.7 17.7 0.00 0.00 0.00 29 1006.6
20260505222826 28 212 8.0 17.7 0.00 0.00 0.00 29 1006.6
20260505222723 28 60 6.4 17.7 0.00 0.00 0.00 30 1006.6
20260505222619 28 71 6.4 17.7 0.00 0.00 0.00 31 1006.6
20260505222526 27 95 6.4 17.7 0.00 0.00 0.00 31 1006.6
20260505222431 27 81 6.4 17.7 0.00 0.00 0.00 30 1006.6
20260505222312 27 61 6.4 17.7 0.00 0.00 0.00 30 1006.7
20260505222241 27 67 8.0 17.7 0.00 0.00 0.00 30 1006.7
20260505222116 27 44 6.4 19.3 0.00 0.00 0.00 30 1006.7
20260505222034 27 106 4.8 19.3 0.00 0.00 0.00 30 1006.7
20260505221920 27 46 6.4 19.3 0.00 0.00 0.00 30 1006.7
20260505221818 27 357 8.0 19.3 0.00 0.00 0.00 30 1006.7
20260505221723 27 51 9.7 19.3 0.00 0.00 0.00 29 1006.7
20260505221622 27 5 8.0 19.3 0.00 0.00 0.00 30 1006.7
20260505221519 27 30 9.7 19.3 0.00 0.00 0.00 29 1006.7
20260505221426 27 15 12.9 19.3 0.00 0.00 0.00 28 1006.7
20260505221323 27 345 12.9 19.3 0.00 0.00 0.00 28 1006.7
20260505221232 27 5 11.3 19.3 0.00 0.00 0.00 28 1006.7
20260505221126 27 341 9.7 19.3 0.00 0.00 0.00 28 1006.7
20260505221026 27 5 11.3 22.5 0.00 0.00 0.00 27 1006.7
20260505220913 27 15 9.7 22.5 0.00 0.00 0.00 28 1006.8
20260505220830 27 54 8.0 22.5 0.00 0.00 0.00 27 1006.8
20260505220734 27 73 6.4 22.5 0.00 0.00 0.00 29 1006.8
20260505220643 27 46 8.0 22.5 0.00 0.00 0.00 29 1006.8
20260505220517 27 69 6.4 22.5 0.00 0.00 0.00 28 1006.8
20260505220414 27 10 4.8 22.5 0.00 0.00 0.00 27 1006.8
20260505220315 27 355 9.7 22.5 0.00 0.00 0.00 27 1006.8
20260505220242 27 325 11.3 22.5 0.00 0.00 0.00 27 1006.9
20260505220125 27 44 9.7 22.5 0.00 0.00 0.00 27 1006.8
20260505220021 27 66 4.8 16.1 0.00 0.00 0.00 27 1006.8
20260505215926 27 92 6.4 16.1 0.00 0.00 0.00 28 1006.8
20260505215823 27 40 6.4 16.1 0.00 0.00 0.00 28 1006.8
20260505215749 27 96 6.4 16.1 0.00 0.00 0.00 28 1006.8
20260505215636 27 23 6.4 16.1 0.00 0.00 0.00 28 1006.8
20260505215535 27 327 6.4 16.1 0.00 0.00 0.00 28 1006.9
20260505215420 27 60 8.0 16.1 0.00 0.00 0.00 29 1006.9
20260505215336 27 92 8.0 16.1 0.00 0.00 0.00 28 1006.9
20260505215223 27 51 6.4 17.7 0.00 0.00 0.00 27 1006.9
20260505215119 27 46 4.8 17.7 0.00 0.00 0.00 30 1006.9
20260505215014 27 31 4.8 17.7 0.00 0.00 0.00 29 1006.9
20260505214921 27 32 6.4 17.7 0.00 0.00 0.00 29 1006.9
20260505214822 27 48 8.0 17.7 0.00 0.00 0.00 30 1006.9
20260505214730 27 77 6.4 17.7 0.00 0.00 0.00 30 1006.9
20260505214626 27 51 4.8 17.7 0.00 0.00 0.00 30 1006.8
20260505214531 27 70 6.4 17.7 0.00 0.00 0.00 29 1006.9
20260505214429 27 15 9.7 17.7 0.00 0.00 0.00 30 1006.9
20260505214327 27 53 8.0 17.7 0.00 0.00 0.00 29 1006.9
20260505214219 27 332 6.4 17.7 0.00 0.00 0.00 30 1006.9
20260505214112 27 30 9.7 17.7 0.00 0.00 0.00 30 1006.9
20260505214039 27 69 8.0 19.3 0.00 0.00 0.00 29 1006.9
20260505213916 27 52 11.3 20.9 0.00 0.00 0.00 31 1006.9
20260505213814 27 20 9.7 20.9 0.00 0.00 0.00 30 1007.0
20260505213742 27 36 6.4 20.9 0.00 0.00 0.00 30 1006.9
20260505213617 27 31 6.4 20.9 0.00 0.00 0.00 30 1006.9
20260505213528 27 35 6.4 20.9 0.00 0.00 0.00 30 1006.9
20260505213446 27 15 9.7 20.9 0.00 0.00 0.00 30 1006.9
20260505213330 27 355 11.3 20.9 0.00 0.00 0.00 31 1006.9
20260505213228 27 10 12.9 20.9 0.00 0.00 0.00 30 1006.9
20260505213135 27 19 12.9 20.9 0.00 0.00 0.00 30 1006.9
20260505213031 27 334 11.3 20.9 0.00 0.00 0.00 31 1006.9
20260505212938 27 23 9.7 20.9 0.00 0.00 0.00 31 1007.0
20260505212818 27 77 9.7 20.9 0.00 0.00 0.00 32 1007.0
20260505212716 27 29 8.0 20.9 0.00 0.00 0.00 33 1007.0
20260505212612 26 15 4.8 20.9 0.00 0.00 0.00 32 1006.9
20260505212517 26 349 9.7 19.3 0.00 0.00 0.00 32 1007.0
20260505212422 26 34 11.3 19.3 0.00 0.00 0.00 32 1007.0
20260505212339 26 10 9.7 19.3 0.00 0.00 0.00 32 1007.0
20260505212223 26 352 11.3 19.3 0.00 0.00 0.00 32 1007.0
20260505212131 26 5 12.9 22.5 0.00 0.00 0.00 33 1007.0
20260505212029 26 360 12.9 22.5 0.00 0.00 0.00 33 1007.0
20260505211926 26 5 11.3 22.5 0.00 0.00 0.00 32 1007.0
20260505211811 26 333 11.3 22.5 0.00 0.00 0.00 31 1007.0
20260505211728 26 339 11.3 22.5 0.00 0.00 0.00 31 1007.0
20260505211656 26 340 11.3 22.5 0.00 0.00 0.00 32 1007.0
20260505211600 26 341 12.9 22.5 0.00 0.00 0.00 32 1007.0
20260505211417 26 5 14.5 22.5 0.00 0.00 0.00 32 1007.0
20260505211318 26 19 14.5 22.5 0.00 0.00 0.00 32 1007.0
20260505211224 26 346 14.5 22.5 0.00 0.00 0.00 32 1007.0
20260505211132 26 5 11.3 20.9 0.00 0.00 0.00 32 1007.0
20260505211028 26 15 8.0 20.9 0.00 0.00 0.00 33 1007.1
20260505210926 26 351 8.0 20.9 0.00 0.00 0.00 32 1007.0
20260505210833 26 65 8.0 20.9 0.00 0.00 0.00 32 1007.0
20260505210713 26 27 8.0 20.9 0.00 0.00 0.00 32 1007.0
20260505210640 26 355 9.7 20.9 0.00 0.00 0.00 32 1007.0
20260505210512 26 337 11.3 20.9 0.00 0.00 0.00 33 1007.1
20260505210439 26 43 14.5 20.9 0.00 0.00 0.00 33 1007.1
20260505210344 26 31 14.5 20.9 0.00 0.00 0.00 32 1007.1
20260505210219 26 15 11.3 20.9 0.00 0.00 0.00 32 1007.1
20260505210116 26 10 9.7 20.9 0.00 0.00 0.00 32 1007.1
20260505210022 26 10 6.4 20.9 0.00 0.00 0.00 32 1007.1
20260505205921 26 72 3.2 20.9 0.00 0.00 0.00 32 1007.1
20260505205846 26 30 3.2 20.9 0.00 0.00 0.00 32 1007.1
20260505205723 26 58 6.4 20.9 0.00 0.00 0.00 32 1007.1
20260505205647 26 10 9.7 20.9 0.00 0.00 0.00 33 1007.1
20260505205533 26 15 9.7 20.9 0.00 0.00 0.00 32 1007.1
20260505205429 26 1 11.3 20.9 0.00 0.00 0.00 32 1007.1
20260505205334 26 10 8.0 20.9 0.00 0.00 0.00 33 1007.1
20260505205241 26 10 8.0 20.9 0.00 0.00 0.00 33 1007.1
20260505205120 26 66 8.0 19.3 0.00 0.00 0.00 33 1007.1
20260505205036 26 10 9.7 19.3 0.00 0.00 0.00 33 1007.1
20260505204921 26 360 12.9 19.3 0.00 0.00 0.00 33 1007.1
20260505204847 26 67 11.3 19.3 0.00 0.00 0.00 32 1007.1
20260505204726 26 346 8.0 19.3 0.00 0.00 0.00 32 1007.1
20260505204623 26 345 8.0 19.3 0.00 0.00 0.00 32 1007.1
20260505204530 26 22 11.3 19.3 0.00 0.00 0.00 32 1007.1
20260505204426 26 15 12.9 19.3 0.00 0.00 0.00 33 1007.2
20260505204334 26 15 12.9 19.3 0.00 0.00 0.00 32 1007.2
20260505204230 26 352 11.3 17.7 0.00 0.00 0.00 32 1007.2
20260505204138 26 353 8.0 16.1 0.00 0.00 0.00 32 1007.2
20260505204012 26 72 8.0 20.9 0.00 0.00 0.00 33 1007.2
20260505203938 26 53 8.0 20.9 0.00 0.00 0.00 32 1007.2
20260505203816 26 15 4.8 20.9 0.00 0.00 0.00 33 1007.2
20260505203745 26 32 6.4 20.9 0.00 0.00 0.00 33 1007.2
20260505203620 26 356 9.7 20.9 0.00 0.00 0.00 32 1007.2
20260505203517 26 15 11.3 20.9 0.00 0.00 0.00 33 1007.2
20260505203422 26 23 11.3 20.9 0.00 0.00 0.00 32 1007.2
20260505203320 26 20 11.3 20.9 0.00 0.00 0.00 32 1007.3
20260505203228 26 23 11.3 20.9 0.00 0.00 0.00 32 1007.3
20260505203124 26 5 6.4 19.3 0.00 0.00 0.00 33 1007.3
20260505203028 26 32 6.4 19.3 0.00 0.00 0.00 33 1007.3
20260505202923 26 40 8.0 19.3 0.00 0.00 0.00 33 1007.2
20260505202828 26 76 9.7 19.3 0.00 0.00 0.00 33 1007.2
20260505202725 26 15 9.7 27.4 0.00 0.00 0.00 33 1007.4
20260505202621 26 10 9.7 27.4 0.00 0.00 0.00 33 1007.4
20260505202547 26 353 6.4 27.4 0.00 0.00 0.00 33 1007.4
20260505202433 26 316 6.4 27.4 0.00 0.00 0.00 34 1007.3
20260505202329 26 36 11.3 27.4 0.00 0.00 0.00 34 1007.3
20260505202218 26 23 11.3 27.4 0.00 0.00 0.00 33 1007.4
20260505202114 26 26 11.3 27.4 0.00 0.00 0.00 32 1007.4
20260505202041 26 352 12.9 27.4 0.00 0.00 0.00 34 1007.4
20260505201916 26 349 8.0 27.4 0.00 0.00 0.00 33 1007.4
20260505201821 26 23 6.4 19.3 0.00 0.00 0.00 33 1007.4
20260505201727 26 44 9.7 20.9 0.00 0.00 0.00 33 1007.4
20260505201620 26 40 9.7 20.9 0.00 0.00 0.00 34 1007.4
20260505201516 26 25 9.7 20.9 0.00 0.00 0.00 33 1007.4
20260505201426 26 10 11.3 20.9 0.00 0.00 0.00 33 1007.4
20260505201323 26 32 9.7 20.9 0.00 0.00 0.00 34 1007.4
20260505201230 26 20 8.0 20.9 0.00 0.00 0.00 34 1007.4
20260505201159 26 341 6.4 20.9 0.00 0.00 0.00 35 1007.4
20260505201012 25 61 9.7 22.5 0.00 0.00 0.00 35 1007.5
20260505200930 25 58 8.0 22.5 0.00 0.00 0.00 35 1007.5
20260505200852 25 15 8.0 22.5 0.00 0.00 0.00 34 1007.5
20260505200714 25 40 11.3 22.5 0.00 0.00 0.00 34 1007.5
20260505200619 25 28 11.3 22.5 0.00 0.00 0.00 34 1007.5
20260505200537 25 40 9.7 22.5 0.00 0.00 0.00 34 1007.5
20260505200420 25 331 9.7 22.5 0.00 0.00 0.00 34 1007.5
20260505200318 25 342 11.3 22.5 0.00 0.00 0.00 35 1007.5
20260505200225 25 350 11.3 22.5 0.00 0.00 0.00 35 1007.5
20260505200120 25 359 8.0 20.9 0.00 0.00 0.00 35 1007.5
20260505200029 25 19 6.4 20.9 0.00 0.00 0.00 35 1007.5
20260505195955 25 31 8.0 20.9 0.00 0.00 0.00 36 1007.5
20260505195811 25 15 8.0 20.9 0.00 0.00 0.00 34 1007.5
20260505195728 25 5 8.0 20.9 0.00 0.00 0.00 33 1007.5
20260505195633 25 347 9.7 20.9 0.00 0.00 0.00 34 1007.5
20260505195536 25 1 12.9 20.9 0.00 0.00 0.00 34 1007.5
20260505195432 25 5 14.5 20.9 0.00 0.00 0.00 35 1007.5
20260505195359 25 351 11.3 19.3 0.00 0.00 0.00 36 1007.5
20260505195220 25 36 6.4 19.3 0.00 0.00 0.00 36 1007.5
20260505195143 25 70 6.4 17.7 0.00 0.00 0.00 35 1007.5
20260505195019 25 91 4.8 17.7 0.00 0.00 0.00 36 1007.5
20260505194923 25 25 4.8 17.7 0.00 0.00 0.00 35 1007.5
20260505194820 25 93 6.4 17.7 0.00 0.00 0.00 36 1007.5
20260505194729 25 54 8.0 17.7 0.00 0.00 0.00 36 1007.5
20260505194623 25 52 6.4 17.7 0.00 0.00 0.00 35 1007.6
20260505194524 25 360 6.4 17.7 0.00 0.00 0.00 35 1007.6
20260505194430 25 356 8.0 17.7 0.00 0.00 0.00 35 1007.6
20260505194328 25 354 8.0 19.3 0.00 0.00 0.00 36 1007.6
20260505194234 25 10 6.4 19.3 0.00 0.00 0.00 36 1007.6
20260505194131 25 343 4.8 19.3 0.00 0.00 0.00 37 1007.6
20260505194035 25 19 6.4 19.3 0.00 0.00 0.00 37 1007.6
20260505193913 25 57 9.7 19.3 0.00 0.00 0.00 37 1007.6
20260505193843 25 28 9.7 19.3 0.00 0.00 0.00 36 1007.6
20260505193720 25 25 11.3 19.3 0.00 0.00 0.00 37 1007.6
20260505193628 25 55 11.3 19.3 0.00 0.00 0.00 37 1007.6
20260505193544 25 33 9.7 19.3 0.00 0.00 0.00 38 1007.6
20260505193430 24 52 8.0 19.3 0.00 0.00 0.00 37 1007.6
20260505193328 24 21 6.4 19.3 0.00 0.00 0.00 37 1007.6
20260505193236 24 41 8.0 19.3 0.00 0.00 0.00 38 1007.7
20260505193113 24 42 11.3 19.3 0.00 0.00 0.00 37 1007.7
20260505193030 24 350 9.7 19.3 0.00 0.00 0.00 39 1007.7
20260505192936 24 23 6.4 17.7 0.00 0.00 0.00 38 1007.7
20260505192832 24 45 8.0 17.7 0.00 0.00 0.00 37 1007.7
20260505192719 24 23 9.7 17.7 0.00 0.00 0.00 37 1007.7
20260505192614 24 15 11.3 17.7 0.00 0.00 0.00 38 1007.8
20260505192512 24 20 9.7 17.7 0.00 0.00 0.00 38 1007.7
20260505192422 23 10 6.4 17.7 0.00 0.00 0.00 38 1007.7
20260505192319 23 10 8.0 17.7 0.00 0.00 0.00 38 1007.7
20260505192227 23 27 6.4 14.5 0.00 0.00 0.00 39 1007.7
20260505192123 23 110 3.2 14.5 0.00 0.00 0.00 38 1007.7
20260505192020 23 327 3.2 14.5 0.00 0.00 0.00 38 1007.7
20260505191925 23 329 4.8 14.5 0.00 0.00 0.00 39 1007.7
20260505191829 23 24 8.0 14.5 0.00 0.00 0.00 38 1007.7
20260505191742 23 21 8.0 16.1 0.00 0.00 0.00 38 1007.8
20260505191613 23 341 6.4 16.1 0.00 0.00 0.00 39 1007.8
20260505191540 23 353 6.4 16.1 0.00 0.00 0.00 39 1007.8
20260505191417 23 10 6.4 16.1 0.00 0.00 0.00 38 1007.8
20260505191314 23 319 9.7 16.1 0.00 0.00 0.00 38 1007.8
20260505191220 24 344 9.7 16.1 0.00 0.00 0.00 38 1007.8
20260505191143 24 332 9.7 16.1 0.00 0.00 0.00 38 1007.8
20260505191019 24 335 8.0 16.1 0.00 0.00 0.00 39 1007.8
20260505190920 24 359 6.4 16.1 0.00 0.00 0.00 40 1007.8
20260505190826 23 29 8.0 16.1 0.00 0.00 0.00 39 1007.8
20260505190753 23 10 6.4 16.1 0.00 0.00 0.00 39 1007.8
20260505190628 23 19 4.8 16.1 0.00 0.00 0.00 41 1007.8
20260505190532 23 29 4.8 16.1 0.00 0.00 0.00 39 1007.8
20260505190428 23 77 9.7 16.1 0.00 0.00 0.00 39 1007.8
20260505190354 23 57 9.7 16.1 0.00 0.00 0.00 40 1007.8
20260505190236 23 50 6.4 16.1 0.00 0.00 0.00 40 1007.8
20260505190119 23 29 6.4 16.1 0.00 0.00 0.00 40 1007.9
20260505190034 23 28 6.4 16.1 0.00 0.00 0.00 39 1007.8
20260505185919 23 65 8.0 16.1 0.00 0.00 0.00 40 1007.8
20260505185817 23 352 4.8 17.7 0.00 0.00 0.00 40 1007.8
20260505185724 23 27 4.8 17.7 0.00 0.00 0.00 39 1007.9
20260505185617 23 306 6.4 17.7 0.00 0.00 0.00 39 1007.8
20260505185543 23 306 8.0 17.7 0.00 0.00 0.00 39 1007.8
20260505185451 23 323 4.8 17.7 0.00 0.00 0.00 40 1007.8
20260505185327 23 5 4.8 17.7 0.00 0.00 0.00 40 1007.9
20260505185223 23 321 8.0 17.7 0.00 0.00 0.00 41 1007.9
20260505185131 23 350 9.7 17.7 0.00 0.00 0.00 40 1007.9
20260505185024 23 21 8.0 17.7 0.00 0.00 0.00 41 1007.9
20260505184930 23 341 8.0 17.7 0.00 0.00 0.00 39 1007.9
20260505184826 23 358 8.0 16.1 0.00 0.00 0.00 40 1007.9
20260505184726 23 27 8.0 16.1 0.00 0.00 0.00 40 1008.0
20260505184635 23 10 6.4 16.1 0.00 0.00 0.00 41 1008.0
20260505184558 23 29 6.4 16.1 0.00 0.00 0.00 40 1007.9
20260505184415 23 39 8.0 16.1 0.00 0.00 0.00 41 1008.0
20260505184312 23 36 8.0 16.1 0.00 0.00 0.00 41 1008.0
20260505184240 23 48 8.0 16.1 0.00 0.00 0.00 41 1008.0
20260505184119 23 348 6.4 16.1 0.00 0.00 0.00 41 1007.9
20260505184046 23 21 8.0 16.1 0.00 0.00 0.00 42 1007.9
20260505183922 23 37 6.4 16.1 0.00 0.00 0.00 42 1007.9
20260505183828 23 347 4.8 16.1 0.00 0.00 0.00 41 1007.9
20260505183731 23 323 6.4 16.1 0.00 0.00 0.00 41 1007.9
20260505183651 23 333 4.8 16.1 0.00 0.00 0.00 40 1007.9
20260505183532 23 344 6.4 16.1 0.00 0.00 0.00 41 1007.9
20260505183458 23 344 6.4 16.1 0.00 0.00 0.00 41 1007.9
20260505183333 23 354 8.0 16.1 0.00 0.00 0.00 41 1007.9
20260505183258 23 343 9.7 16.1 0.00 0.00 0.00 41 1007.9
20260505183118 23 341 8.0 14.5 0.00 0.00 0.00 41 1007.9
20260505183016 23 15 4.8 11.3 0.00 0.00 0.00 40 1007.8
20260505182922 23 44 6.4 12.9 0.00 0.00 0.00 40 1007.9
20260505182837 23 354 4.8 12.9 0.00 0.00 0.00 41 1007.9
20260505182724 23 19 4.8 12.9 0.00 0.00 0.00 40 1007.9
20260505182619 23 113 6.4 14.5 0.00 0.00 0.00 40 1007.9
20260505182528 23 28 6.4 14.5 0.00 0.00 0.00 41 1007.9
20260505182445 23 88 6.4 14.5 0.00 0.00 0.00 41 1007.8
20260505182331 23 50 3.2 14.5 0.00 0.00 0.00 40 1007.8
20260505182228 23 25 4.8 14.5 0.00 0.00 0.00 41 1007.9
20260505182137 23 20 6.4 14.5 0.00 0.00 0.00 40 1007.8
20260505182012 23 353 6.4 14.5 0.00 0.00 0.00 41 1007.8
20260505181938 23 39 8.0 14.5 0.00 0.00 0.00 40 1007.8
20260505181817 23 69 8.0 14.5 0.00 0.00 0.00 41 1007.9
20260505181743 23 28 9.7 14.5 0.00 0.00 0.00 41 1007.8
20260505181616 23 10 8.0 14.5 0.00 0.00 0.00 41 1007.9
20260505181544 23 5 4.8 14.5 0.00 0.00 0.00 41 1007.8
20260505181420 23 1 1.6 14.5 0.00 0.00 0.00 41 1007.8
20260505181347 23 1 1.6 14.5 0.00 0.00 0.00 41 1007.8
20260505181253 23 1 3.2 14.5 0.00 0.00 0.00 41 1007.8
20260505181130 22 1 3.2 14.5 0.00 0.00 0.00 42 1007.8
20260505181013 22 354 3.2 14.5 0.00 0.00 0.00 42 1007.8
20260505180914 22 354 4.8 14.5 0.00 0.00 0.00 42 1007.8
20260505180820 22 40 6.4 14.5 0.00 0.00 0.00 42 1007.9
20260505180714 22 57 4.8 14.5 0.00 0.00 0.00 42 1007.8
20260505180642 22 46 3.2 14.5 0.00 0.00 0.00 42 1007.8
20260505180518 22 47 6.4 14.5 0.00 0.00 0.00 42 1007.8
20260505180416 22 50 4.8 14.5 0.00 0.00 0.00 43 1007.8
20260505180325 22 25 3.2 12.9 0.00 0.00 0.00 43 1007.8
20260505180241 22 21 1.6 12.9 0.00 0.00 0.00 42 1007.8
20260505180129 22 21 3.2 12.9 0.00 0.00 0.00 43 1007.8
20260505180024 22 21 6.4 12.9 0.00 0.00 0.00 43 1007.8
20260505175930 22 21 4.8 12.9 0.00 0.00 0.00 43 1007.8
20260505175824 22 26 4.8 11.3 0.00 0.00 0.00 43 1007.8
20260505175730 22 24 6.4 9.7 0.00 0.00 0.00 44 1007.8
20260505175629 22 29 4.8 11.3 0.00 0.00 0.00 43 1007.8
20260505175536 22 77 3.2 9.7 0.00 0.00 0.00 43 1007.8
20260505175431 22 77 4.8 9.7 0.00 0.00 0.00 44 1007.8
20260505175338 22 5 4.8 12.9 0.00 0.00 0.00 44 1007.8
20260505175217 22 353 1.6 12.9 0.00 0.00 0.00 44 1007.8
20260505175140 21 352 1.6 12.9 0.00 0.00 0.00 44 1007.8
20260505175036 21 352 1.6 12.9 0.00 0.00 0.00 45 1007.8
20260505174922 21 352 3.2 12.9 0.00 0.00 0.00 45 1007.8
20260505174824 21 352 4.8 12.9 0.00 0.00 0.00 44 1007.8
20260505174730 21 352 6.4 12.9 0.00 0.00 0.00 44 1007.8
20260505174625 21 313 8.0 12.9 0.00 0.00 0.00 44 1007.8
20260505174522 21 314 6.4 9.7 0.00 0.00 0.00 44 1007.8
20260505174428 21 336 4.8 9.7 0.00 0.00 0.00 45 1007.8
20260505174354 21 337 3.2 9.7 0.00 0.00 0.00 45 1007.8
20260505174213 21 327 0.0 9.7 0.00 0.00 0.00 45 1007.8
20260505174113 21 327 0.0 9.7 0.00 0.00 0.00 45 1007.8
20260505174019 21 327 0.0 9.7 0.00 0.00 0.00 45 1007.8
20260505173916 21 327 1.6 9.7 0.00 0.00 0.00 45 1007.8
20260505173843 21 327 4.8 9.7 0.00 0.00 0.00 45 1007.8
20260505173721 21 327 4.8 11.3 0.00 0.00 0.00 45 1007.8
20260505173625 21 298 3.2 9.7 0.00 0.00 0.00 45 1007.7
20260505173521 21 265 0.0 6.4 0.00 0.00 0.00 46 1007.7
20260505173423 21 265 0.0 6.4 0.00 0.00 0.00 45 1007.8
20260505173330 21 265 1.6 6.4 0.00 0.00 0.00 46 1007.8
20260505173228 21 265 1.6 6.4 0.00 0.00 0.00 46 1007.8
20260505173134 21 265 1.6 6.4 0.00 0.00 0.00 47 1007.8
20260505173031 21 265 3.2 6.4 0.00 0.00 0.00 48 1007.8
20260505172936 20 265 4.8 6.4 0.00 0.00 0.00 47 1007.8
20260505172818 20 268 3.2 6.4 0.00 0.00 0.00 47 1007.8
20260505172723 20 268 4.8 6.4 0.00 0.00 0.00 47 1007.8
20260505172616 20 268 1.6 6.4 0.00 0.00 0.00 47 1007.8
20260505172522 20 267 1.6 6.4 0.00 0.00 0.00 47 1007.8
20260505172417 20 267 3.2 6.4 0.00 0.00 0.00 47 1007.8
20260505172323 20 267 4.8 6.4 0.00 0.00 0.00 47 1007.8
20260505172241 20 267 3.2 6.4 0.00 0.00 0.00 48 1007.8
20260505172125 20 267 1.6 6.4 0.00 0.00 0.00 48 1007.9
20260505172026 20 266 1.6 6.4 0.00 0.00 0.00 48 1007.8
20260505171931 20 266 1.6 6.4 0.00 0.00 0.00 48 1007.8
20260505171827 20 266 0.0 6.4 0.00 0.00 0.00 48 1007.9
20260505171734 20 266 1.6 6.4 0.00 0.00 0.00 48 1007.9
20260505171626 20 266 3.2 6.4 0.00 0.00 0.00 48 1007.9
20260505171553 20 266 3.2 6.4 0.00 0.00 0.00 48 1007.9
20260505171427 20 270 3.2 6.4 0.00 0.00 0.00 50 1007.9
20260505171316 20 270 1.6 6.4 0.00 0.00 0.00 49 1007.9
20260505171214 20 270 1.6 6.4 0.00 0.00 0.00 49 1007.9
20260505171117 20 270 3.2 6.4 0.00 0.00 0.00 48 1007.9
20260505171013 20 270 3.2 6.4 0.00 0.00 0.00 48 1007.9
20260505170919 20 270 3.2 6.4 0.00 0.00 0.00 48 1007.9
20260505170816 20 269 3.2 6.4 0.00 0.00 0.00 48 1007.9
20260505170714 19 269 3.2 4.8 0.00 0.00 0.00 49 1007.9
20260505170622 19 269 3.2 4.8 0.00 0.00 0.00 49 1007.9
20260505170519 19 269 3.2 11.3 0.00 0.00 0.00 49 1007.9
20260505170426 19 269 3.2 11.3 0.00 0.00 0.00 49 1007.9
20260505170322 19 269 1.6 11.3 0.00 0.00 0.00 49 1007.9
20260505170221 19 269 1.6 11.3 0.00 0.00 0.00 49 1007.8
20260505170126 19 269 1.6 11.3 0.00 0.00 0.00 48 1007.9
20260505170023 19 269 1.6 11.3 0.00 0.00 0.00 48 1007.9
20260505165931 19 269 1.6 11.3 0.00 0.00 0.00 49 1007.9
20260505165834 19 269 3.2 11.3 0.00 0.00 0.00 49 1007.9
20260505165740 19 269 6.4 11.3 0.00 0.00 0.00 49 1007.9
20260505165616 19 242 3.2 9.7 0.00 0.00 0.00 49 1007.8
20260505165514 19 240 1.6 9.7 0.00 0.00 0.00 49 1007.9
20260505165412 19 240 3.2 9.7 0.00 0.00 0.00 50 1007.8
20260505165319 19 240 3.2 9.7 0.00 0.00 0.00 50 1007.8
20260505165246 19 240 1.6 9.7 0.00 0.00 0.00 51 1007.9
20260505165128 19 239 3.2 9.7 0.00 0.00 0.00 51 1007.9
20260505165031 19 239 4.8 9.7 0.00 0.00 0.00 51 1007.9
20260505164927 18 239 4.8 9.7 0.00 0.00 0.00 51 1007.9
20260505164833 18 239 8.0 9.7 0.00 0.00 0.00 51 1007.9
20260505164730 18 241 6.4 11.3 0.00 0.00 0.00 50 1007.9
20260505164638 18 246 4.8 11.3 0.00 0.00 0.00 50 1007.9
20260505164518 18 268 4.8 9.7 0.00 0.00 0.00 50 1007.9
20260505164436 18 268 4.8 9.7 0.00 0.00 0.00 50 1007.9
20260505164321 18 267 3.2 9.7 0.00 0.00 0.00 51 1007.9
20260505164218 18 267 0.0 9.7 0.00 0.00 0.00 51 1007.9
20260505164122 18 231 0.0 9.7 0.00 0.00 0.00 52 1007.9
20260505164018 18 231 0.0 9.7 0.00 0.00 0.00 52 1007.9
20260505163916 18 231 0.0 9.7 0.00 0.00 0.00 52 1007.9
20260505163827 18 231 1.6 9.7 0.00 0.00 0.00 52 1007.9
20260505163731 18 231 3.2 9.7 0.00 0.00 0.00 52 1007.9
20260505163630 18 231 4.8 9.7 0.00 0.00 0.00 52 1007.9
20260505163525 18 231 6.4 9.7 0.00 0.00 0.00 53 1007.9
20260505163430 18 231 8.0 9.7 0.00 0.00 0.00 53 1007.9
20260505163326 18 231 6.4 9.7 0.00 0.00 0.00 54 1007.9
20260505163234 18 231 6.4 11.3 0.00 0.00 0.00 55 1007.9
20260505163113 18 232 6.4 11.3 0.00 0.00 0.00 56 1007.9
20260505163039 18 247 6.4 11.3 0.00 0.00 0.00 56 1007.9
20260505162914 17 247 6.4 11.3 0.00 0.00 0.00 57 1007.9
20260505162812 17 252 6.4 9.7 0.00 0.00 0.00 57 1007.9
20260505162739 17 190 6.4 9.7 0.00 0.00 0.00 57 1007.9
20260505162614 17 217 3.2 8.0 0.00 0.00 0.00 57 1007.9
20260505162516 17 219 3.2 8.0 0.00 0.00 0.00 58 1007.9
20260505162422 17 219 4.8 8.0 0.00 0.00 0.00 58 1007.9
20260505162340 17 219 4.8 8.0 0.00 0.00 0.00 58 1007.9
20260505162226 17 219 3.2 6.4 0.00 0.00 0.00 58 1007.9
20260505162121 17 219 0.0 8.0 0.00 0.00 0.00 58 1007.9
20260505162027 17 218 1.6 8.0 0.00 0.00 0.00 58 1007.9
20260505161925 17 218 3.2 8.0 0.00 0.00 0.00 58 1007.9
20260505161836 17 218 3.2 8.0 0.00 0.00 0.00 58 1007.9
20260505161713 16 218 3.2 8.0 0.00 0.00 0.00 59 1007.9
20260505161633 16 218 3.2 8.0 0.00 0.00 0.00 59 1007.9
20260505161536 16 218 4.8 8.0 0.00 0.00 0.00 59 1007.9
20260505161430 16 218 4.8 8.0 0.00 0.00 0.00 60 1008.0
20260505161336 16 218 6.4 8.0 0.00 0.00 0.00 60 1008.0
20260505161213 16 217 4.8 8.0 0.00 0.00 0.00 61 1008.0
20260505161123 16 215 4.8 8.0 0.00 0.00 0.00 61 1008.0
20260505161018 16 215 4.8 6.4 0.00 0.00 0.00 61 1008.0
20260505160914 16 215 4.8 6.4 0.00 0.00 0.00 62 1008.0
20260505160820 16 212 3.2 6.4 0.00 0.00 0.00 62 1008.0
20260505160737 16 212 1.6 6.4 0.00 0.00 0.00 62 1008.0
20260505160619 15 212 1.6 6.4 0.00 0.00 0.00 62 1008.1
20260505160516 15 212 3.2 6.4 0.00 0.00 0.00 61 1008.1
20260505160427 15 212 3.2 6.4 0.00 0.00 0.00 62 1008.1
20260505160322 15 212 3.2 6.4 0.00 0.00 0.00 63 1008.1
20260505160231 15 210 3.2 6.4 0.00 0.00 0.00 63 1008.1
20260505160126 15 210 3.2 6.4 0.00 0.00 0.00 63 1008.1
20260505153325 12 207 4.8 9.7 0.00 0.00 0.00 69 1008.1
20260505153231 12 203 3.2 6.4 0.00 0.00 0.00 69 1008.1
20260505153131 12 203 4.8 6.4 0.00 0.00 0.00 70 1008.1
20260505153036 12 203 4.8 6.4 0.00 0.00 0.00 70 1008.1
20260505152915 12 203 4.8 6.4 0.00 0.00 0.00 70 1008.1
20260505152839 12 202 3.2 6.4 0.00 0.00 0.00 70 1008.1
20260505152726 12 202 3.2 6.4 0.00 0.00 0.00 70 1008.1
20260505152621 12 202 4.8 6.4 0.00 0.00 0.00 71 1008.0
20260505152547 12 202 3.2 6.4 0.00 0.00 0.00 71 1008.1
20260505152451 12 202 4.8 6.4 0.00 0.00 0.00 72 1008.1
20260505152326 11 202 4.8 6.4 0.00 0.00 0.00 72 1008.1
20260505152221 11 202 4.8 6.4 0.00 0.00 0.00 73 1008.0
20260505152133 11 202 3.2 6.4 0.00 0.00 0.00 73 1008.0
20260505152035 11 202 4.8 6.4 0.00 0.00 0.00 74 1008.0
20260505151933 11 202 4.8 6.4 0.00 0.00 0.00 74 1008.1
20260505151859 11 202 4.8 6.4 0.00 0.00 0.00 74 1008.1
20260505151736 11 202 3.2 8.0 0.00 0.00 0.00 75 1008.0
20260505151639 11 202 3.2 8.0 0.00 0.00 0.00 75 1008.0
20260505151514 11 202 4.8 8.0 0.00 0.00 0.00 75 1008.0
20260505151420 11 201 4.8 9.7 0.00 0.00 0.00 75 1008.0
20260505151321 10 201 3.2 9.7 0.00 0.00 0.00 76 1008.0
20260505151229 10 201 3.2 9.7 0.00 0.00 0.00 76 1008.0
20260505151128 10 201 3.2 9.7 0.00 0.00 0.00 76 1008.0
20260505151024 10 201 4.8 9.7 0.00 0.00 0.00 77 1007.9
20260505150928 10 201 4.8 9.7 0.00 0.00 0.00 77 1007.9
20260505150834 10 200 4.8 9.7 0.00 0.00 0.00 78 1007.9
20260505150732 10 200 4.8 9.7 0.00 0.00 0.00 78 1007.9
20260505150636 10 200 6.4 9.7 0.00 0.00 0.00 78 1007.9
20260505150517 10 196 6.4 9.7 0.00 0.00 0.00 79 1007.9
20260505150422 10 184 4.8 9.7 0.00 0.00 0.00 79 1007.9
20260505150319 9 156 3.2 6.4 0.00 0.00 0.00 79 1007.9
20260505150219 9 156 4.8 6.4 0.00 0.00 0.00 79 1007.9
20260505150123 9 156 3.2 6.4 0.00 0.00 0.00 80 1007.9